DW8187 Weather Reports


time (UTC)temp
C
wind
direction
speed
KPH
gust
KPH
rain 1hr
cm
rain 24hr
cm
rain mn
cm
humidity
%
barometer
mb
20260507225403 29 0 0.0 0.0 0.00 0.10 0.00 60 1017.7
20260507225306 29 0 0.0 0.0 0.00 0.10 0.00 60 1017.7
20260507225203 29 0 0.0 0.0 0.00 0.10 0.00 60 1017.7
20260507225103 29 0 0.0 0.0 0.00 0.10 0.00 60 1017.8
20260507225003 29 0 0.0 0.0 0.00 0.10 0.00 60 1017.9
20260507224903 29 0 0.0 0.0 0.00 0.10 0.00 60 1017.6
20260507224803 29 0 0.0 0.0 0.00 0.10 0.00 60 1017.6
20260507224703 29 0 0.0 0.0 0.00 0.10 0.00 60 1017.6
20260507224604 29 295 0.0 1.6 0.00 0.10 0.00 60 1017.7
20260507224504 29 295 0.0 1.6 0.00 0.10 0.00 60 1017.6
20260507224403 29 295 0.0 1.6 0.00 0.10 0.00 60 1017.6
20260507224303 29 295 0.0 1.6 0.00 0.10 0.00 60 1017.5
20260507224203 29 295 0.0 1.6 0.00 0.10 0.00 60 1017.5
20260507224105 29 295 0.0 1.6 0.00 0.10 0.00 60 1017.5
20260507224024 29 295 0.0 1.6 0.00 0.10 0.00 60 1017.7
20260507223903 29 291 0.0 1.6 0.00 0.10 0.00 60 1017.5
20260507223803 29 274 1.6 3.2 0.00 0.10 0.00 60 1017.5
20260507223703 29 256 1.6 3.2 0.00 0.10 0.00 60 1017.4
20260507223603 29 247 1.6 3.2 0.00 0.10 0.00 60 1017.5
20260507223503 29 242 1.6 3.2 0.00 0.10 0.00 60 1017.4
20260507223403 29 241 1.6 3.2 0.00 0.10 0.00 60 1017.5
20260507223303 29 241 1.6 3.2 0.00 0.10 0.00 60 1017.5
20260507223203 29 241 1.6 3.2 0.00 0.10 0.00 60 1017.5
20260507223103 29 241 1.6 3.2 0.00 0.10 0.00 60 1017.4
20260507223024 29 241 1.6 3.2 0.00 0.10 0.00 60 1017.5
20260507222924 29 248 1.6 3.2 0.00 0.10 0.00 60 1017.6
20260507222803 29 250 1.6 3.2 0.00 0.10 0.00 60 1017.4
20260507222704 29 266 1.6 3.2 0.00 0.10 0.00 60 1017.3
20260507222603 29 284 1.6 3.2 0.00 0.10 0.00 60 1017.4
20260507222504 29 288 1.6 3.2 0.00 0.10 0.00 60 1017.5
20260507222403 29 282 1.6 3.2 0.00 0.10 0.00 60 1017.4
20260507222306 29 282 1.6 3.2 0.00 0.10 0.00 60 1017.3
20260507222203 29 272 1.6 3.2 0.00 0.10 0.00 60 1017.3
20260507222103 29 266 1.6 3.2 0.00 0.10 0.00 60 1017.3
20260507222003 29 258 1.6 3.2 0.00 0.10 0.00 60 1017.3
20260507221903 29 245 1.6 4.8 0.00 0.10 0.00 60 1017.4
20260507221803 29 239 3.2 4.8 0.00 0.10 0.00 60 1017.5
20260507221724 29 236 3.2 4.8 0.00 0.10 0.00 60 1017.5
20260507221603 29 223 3.2 4.8 0.00 0.10 0.00 60 1017.3
20260507221503 29 219 3.2 4.8 0.00 0.10 0.00 60 1017.3
20260507221403 29 214 3.2 4.8 0.00 0.10 0.00 60 1017.3
20260507221303 29 214 3.2 4.8 0.00 0.10 0.00 60 1017.3
20260507221224 29 213 3.2 4.8 0.00 0.10 0.00 60 1017.5
20260507221103 29 214 3.2 4.8 0.00 0.10 0.00 60 1017.2
20260507221025 29 213 3.2 4.8 0.00 0.10 0.00 60 1017.3
20260507220904 29 214 1.6 3.2 0.00 0.10 0.00 60 1017.2
20260507220803 29 215 1.6 3.2 0.00 0.10 0.00 60 1017.2
20260507220703 29 218 1.6 3.2 0.00 0.10 0.00 60 1017.3
20260507220603 29 221 1.6 3.2 0.00 0.10 0.00 60 1017.2
20260507220503 29 221 1.6 3.2 0.00 0.10 0.00 60 1017.2
20260507220424 29 222 1.6 3.2 0.00 0.10 0.00 60 1017.2
20260507220303 29 225 0.0 3.2 0.00 0.10 0.00 60 1017.3
20260507220203 29 222 0.0 3.2 0.00 0.10 0.00 60 1017.1
20260507220024 29 219 0.0 1.6 0.00 0.10 0.00 60 1017.3
20260507215903 29 0 0.0 0.0 0.00 0.10 0.00 60 1017.3
20260507215803 29 0 0.0 0.0 0.00 0.10 0.00 60 1017.3
20260507215703 29 0 0.0 0.0 0.00 0.10 0.00 60 1017.3
20260507215603 29 0 0.0 0.0 0.00 0.10 0.00 60 1017.3
20260507215503 29 0 0.0 0.0 0.00 0.10 0.00 60 1017.3
20260507215403 29 0 0.0 0.0 0.00 0.10 0.00 60 1017.2
20260507215324 29 0 0.0 0.0 0.00 0.10 0.00 60 1017.1
20260507215205 29 0 0.0 0.0 0.00 0.10 0.00 60 1017.2
20260507215124 29 0 0.0 0.0 0.00 0.10 0.00 60 1017.2
20260507215003 29 0 0.0 0.0 0.00 0.10 0.00 60 1017.1
20260507214903 29 0 0.0 0.0 0.00 0.10 0.00 60 1017.1
20260507214803 29 0 0.0 0.0 0.00 0.10 0.00 60 1017.1
20260507214704 29 0 0.0 0.0 0.00 0.10 0.00 60 1017.2
20260507214603 29 0 0.0 0.0 0.00 0.10 0.00 60 1017.1
20260507214503 29 0 0.0 0.0 0.00 0.10 0.00 60 1017.1
20260507214403 29 0 0.0 0.0 0.00 0.10 0.00 60 1017.2
20260507214303 29 0 0.0 0.0 0.00 0.10 0.00 60 1017.3
20260507214203 29 0 0.0 0.0 0.00 0.10 0.00 60 1017.0
20260507214103 29 0 0.0 0.0 0.00 0.10 0.00 60 1017.0
20260507214024 29 0 0.0 0.0 0.00 0.10 0.00 60 1017.1
20260507213903 29 0 0.0 0.0 0.00 0.10 0.00 60 1017.1
20260507213803 29 0 0.0 0.0 0.00 0.10 0.00 60 1017.0
20260507213724 29 0 0.0 0.0 0.00 0.10 0.00 60 1017.0
20260507213603 29 0 0.0 0.0 0.00 0.10 0.00 60 1017.0
20260507213503 29 0 0.0 0.0 0.00 0.10 0.00 60 1017.1
20260507213403 29 0 0.0 0.0 0.00 0.10 0.00 60 1017.0
20260507213305 29 0 0.0 0.0 0.00 0.10 0.00 60 1017.0
20260507213203 29 0 0.0 0.0 0.00 0.10 0.00 60 1017.0
20260507213103 29 0 0.0 0.0 0.00 0.10 0.00 60 1017.1
20260507213003 29 0 0.0 0.0 0.00 0.10 0.00 60 1017.2
20260507212905 29 0 0.0 0.0 0.00 0.10 0.00 60 1017.2
20260507212803 29 0 0.0 0.0 0.00 0.10 0.00 60 1017.1
20260507212703 29 283 0.0 1.6 0.00 0.10 0.00 60 1017.1
20260507212603 29 266 0.0 1.6 0.00 0.10 0.00 60 1017.2
20260507212503 29 274 0.0 1.6 0.00 0.10 0.00 60 1017.2
20260507212404 29 278 0.0 1.6 0.00 0.10 0.00 60 1017.1
20260507212306 29 278 0.0 1.6 0.00 0.10 0.00 60 1016.9
20260507212203 29 280 0.0 1.6 0.00 0.10 0.00 60 1017.1
20260507212104 29 280 0.0 1.6 0.00 0.10 0.00 60 1017.1
20260507212005 29 282 0.0 1.6 0.00 0.10 0.00 60 1017.0
20260507211903 29 282 0.0 1.6 0.00 0.10 0.00 60 1017.0
20260507211804 29 282 0.0 1.6 0.00 0.10 0.00 60 1017.1
20260507211724 29 282 0.0 1.6 0.00 0.10 0.00 60 1017.1
20260507211604 29 291 0.0 1.6 0.00 0.10 0.00 60 1017.2
20260507211503 29 292 0.0 1.6 0.00 0.10 0.00 60 1017.0
20260507211404 29 292 1.6 1.6 0.00 0.10 0.00 60 1017.1
20260507211303 29 291 1.6 1.6 0.00 0.10 0.00 60 1017.1
20260507211224 29 290 1.6 3.2 0.00 0.10 0.00 60 1017.1
20260507211125 29 289 1.6 3.2 0.00 0.10 0.00 60 1017.1
20260507211004 29 288 1.6 3.2 0.00 0.10 0.00 60 1017.1
20260507210903 29 288 1.6 3.2 0.00 0.10 0.00 60 1017.1
20260507210825 29 287 1.6 3.2 0.00 0.10 0.00 60 1017.0
20260507210703 29 287 1.6 3.2 0.00 0.10 0.00 60 1017.0
20260507210624 29 286 1.6 3.2 0.00 0.10 0.00 60 1017.1
20260507210504 29 285 1.6 3.2 0.00 0.10 0.00 60 1017.0
20260507210403 29 285 1.6 3.2 0.00 0.10 0.00 60 1017.1
20260507210304 29 284 1.6 3.2 0.00 0.10 0.00 60 1017.1
20260507210204 29 284 1.6 3.2 0.00 0.10 0.00 60 1016.9
20260507210103 29 285 1.6 3.2 0.00 0.10 0.00 60 1016.9
20260507210004 29 285 1.6 3.2 0.00 0.10 0.00 60 1016.9
20260507205904 29 283 1.6 3.2 0.00 0.10 0.00 60 1017.1
20260507205803 29 287 1.6 3.2 0.00 0.10 0.00 60 1017.0
20260507205724 29 288 0.0 3.2 0.00 0.10 0.00 60 1017.0
20260507205603 29 297 0.0 1.6 0.00 0.10 0.00 60 1017.0
20260507205524 29 303 0.0 1.6 0.00 0.10 0.00 60 1017.0
20260507205404 29 303 0.0 1.6 0.00 0.10 0.00 60 1016.9
20260507205326 29 303 0.0 1.6 0.00 0.10 0.00 60 1016.9
20260507205203 29 303 0.0 1.6 0.00 0.10 0.00 60 1016.7
20260507205103 29 303 0.0 1.6 0.00 0.10 0.00 60 1016.6
20260507205003 29 303 0.0 1.6 0.00 0.10 0.00 60 1017.0
20260507204903 29 303 0.0 1.6 0.00 0.10 0.00 60 1016.9
20260507204803 29 304 0.0 1.6 0.00 0.10 0.00 60 1016.7
20260507204703 29 308 0.0 1.6 0.00 0.10 0.00 60 1016.9
20260507204604 29 311 0.0 1.6 0.00 0.10 0.00 60 1016.7
20260507204504 29 0 0.0 0.0 0.00 0.10 0.00 60 1016.9
20260507204404 29 0 0.0 0.0 0.00 0.10 0.00 60 1016.9
20260507204324 29 0 0.0 0.0 0.00 0.10 0.00 60 1016.7
20260507204203 29 0 0.0 0.0 0.00 0.10 0.00 60 1016.9
20260507204125 29 0 0.0 0.0 0.00 0.10 0.00 60 1017.0
20260507204003 29 0 0.0 0.0 0.00 0.10 0.00 60 1017.0
20260507203903 29 0 0.0 0.0 0.00 0.10 0.00 60 1016.9
20260507203803 29 0 0.0 0.0 0.00 0.13 0.00 60 1017.0
20260507203703 29 296 0.0 1.6 0.00 0.13 0.00 60 1016.9
20260507203605 29 296 0.0 1.6 0.00 0.13 0.00 60 1016.9
20260507203503 29 296 0.0 1.6 0.00 0.13 0.00 60 1016.9
20260507203404 29 296 0.0 1.6 0.00 0.13 0.00 60 1017.0
20260507203303 29 296 0.0 1.6 0.00 0.13 0.00 60 1016.9
20260507203203 29 296 0.0 1.6 0.00 0.13 0.00 60 1017.0
20260507203103 29 294 1.6 1.6 0.00 0.13 0.00 60 1017.0
20260507203003 29 294 1.6 1.6 0.00 0.13 0.00 60 1017.0
20260507202904 29 293 1.6 1.6 0.00 0.13 0.00 60 1017.2
20260507202824 29 291 1.6 3.2 0.00 0.13 0.00 60 1017.1
20260507202724 29 290 1.6 3.2 0.00 0.13 0.00 60 1017.0
20260507202603 29 288 1.6 3.2 0.00 0.13 0.00 60 1017.0
20260507202503 29 288 1.6 3.2 0.00 0.13 0.00 60 1017.0
20260507202403 29 288 1.6 3.2 0.00 0.13 0.00 60 1017.0
20260507202306 29 287 1.6 3.2 0.00 0.13 0.00 60 1017.1
20260507202204 29 286 1.6 3.2 0.00 0.15 0.00 60 1017.0
20260507202103 29 285 1.6 3.2 0.00 0.15 0.00 60 1017.0
20260507202004 29 284 1.6 3.2 0.00 0.15 0.00 60 1017.0
20260507201903 29 284 1.6 3.2 0.00 0.18 0.00 60 1017.0
20260507201803 29 285 1.6 3.2 0.00 0.18 0.00 60 1017.0
20260507201704 29 286 0.0 3.2 0.00 0.18 0.00 60 1017.0
20260507201604 29 286 0.0 1.6 0.00 0.18 0.00 60 1017.1
20260507201503 29 266 0.0 3.2 0.00 0.18 0.00 60 1017.3
20260507201404 29 262 0.0 3.2 0.00 0.18 0.00 60 1017.1
20260507201304 29 259 0.0 3.2 0.00 0.18 0.00 60 1017.1
20260507201225 29 252 0.0 3.2 0.00 0.20 0.00 60 1017.1
20260507201104 29 244 0.0 3.2 0.00 0.20 0.00 60 1017.1
20260507201024 29 238 1.6 3.2 0.00 0.20 0.00 60 1017.2
20260507200904 29 218 1.6 3.2 0.00 0.20 0.00 60 1017.2
20260507200803 29 191 1.6 4.8 0.00 0.20 0.00 60 1017.1
20260507200724 29 182 1.6 4.8 0.00 0.20 0.00 60 1017.4
20260507200603 29 160 1.6 4.8 0.00 0.20 0.00 60 1017.1
20260507200504 29 151 3.2 6.4 0.00 0.20 0.00 60 1017.1
20260507200424 29 143 3.2 6.4 0.00 0.20 0.00 60 1017.3
20260507200303 29 142 3.2 6.4 0.00 0.20 0.00 60 1017.3
20260507200203 29 142 3.2 6.4 0.00 0.20 0.00 60 1017.3
20260507200103 29 141 3.2 6.4 0.00 0.20 0.00 60 1017.3
20260507200004 29 141 3.2 6.4 0.00 0.20 0.00 60 1017.3
20260507195903 29 138 3.2 6.4 0.00 0.20 0.00 60 1017.3
20260507195805 29 132 1.6 6.4 0.00 0.20 0.00 60 1017.4
20260507195704 29 131 1.6 6.4 0.00 0.20 0.00 60 1017.2
20260507195603 29 138 1.6 6.4 0.00 0.20 0.00 60 1017.5
20260507195524 29 140 1.6 4.8 0.00 0.20 0.00 60 1017.4
20260507195403 29 170 0.0 4.8 0.00 0.20 0.00 60 1017.4
20260507195305 29 166 0.0 4.8 0.00 0.20 0.00 60 1017.4
20260507195204 29 141 0.0 3.2 0.00 0.20 0.00 60 1017.5
20260507195103 29 0 0.0 0.0 0.00 0.20 0.00 60 1017.4
20260507195003 29 0 0.0 0.0 0.00 0.20 0.00 60 1017.5
20260507194903 29 0 0.0 0.0 0.00 0.20 0.00 60 1017.3
20260507194804 29 0 0.0 0.0 0.00 0.20 0.00 60 1017.5
20260507194703 29 279 0.0 1.6 0.00 0.20 0.00 60 1017.4
20260507194603 29 280 0.0 1.6 0.00 0.20 0.00 60 1017.4
20260507194504 29 281 0.0 1.6 0.00 0.20 0.00 60 1017.4
20260507194404 29 281 0.0 1.6 0.00 0.20 0.00 60 1017.4
20260507194303 29 281 0.0 1.6 0.00 0.20 0.00 60 1017.4
20260507194204 29 281 0.0 1.6 0.00 0.20 0.00 60 1017.5
20260507194104 29 281 1.6 1.6 0.00 0.20 0.00 60 1017.5
20260507194003 29 281 1.6 1.6 0.00 0.20 0.00 60 1017.5
20260507193903 29 281 1.6 3.2 0.00 0.20 0.00 60 1017.5
20260507193804 29 281 1.6 3.2 0.00 0.20 0.00 60 1017.4
20260507193703 29 274 1.6 3.2 0.00 0.20 0.00 60 1017.5
20260507193603 29 266 1.6 4.8 0.00 0.20 0.00 60 1017.4
20260507193503 29 255 1.6 4.8 0.00 0.20 0.00 60 1017.4
20260507193424 29 251 1.6 4.8 0.00 0.20 0.00 60 1017.6
20260507193303 29 242 3.2 4.8 0.00 0.20 0.00 60 1017.5
20260507193204 29 240 3.2 4.8 0.00 0.20 0.00 60 1017.5
20260507193103 29 235 3.2 9.7 0.00 0.20 0.00 60 1017.7
20260507193003 29 235 3.2 9.7 0.00 0.20 0.00 60 1017.5
20260507192904 29 232 3.2 9.7 0.00 0.20 0.00 60 1017.5
20260507192803 29 233 3.2 9.7 0.00 0.20 0.00 60 1017.5
20260507192725 29 232 3.2 9.7 0.00 0.20 0.00 60 1017.5
20260507192603 29 228 3.2 9.7 0.00 0.20 0.00 60 1017.5
20260507192505 29 230 3.2 9.7 0.00 0.20 0.00 60 1017.4
20260507192403 29 226 3.2 9.7 0.00 0.20 0.00 60 1017.4
20260507192306 29 225 3.2 9.7 0.00 0.20 0.00 60 1017.4
20260507192204 29 222 4.8 9.7 0.00 0.20 0.00 60 1017.3
20260507192103 29 220 4.8 9.7 0.00 0.20 0.00 60 1017.5
20260507192003 29 217 4.8 9.7 0.00 0.20 0.00 60 1017.3
20260507191924 29 217 4.8 9.7 0.00 0.20 0.00 60 1017.4
20260507191803 29 212 4.8 9.7 0.00 0.20 0.00 60 1017.3
20260507191703 29 213 4.8 9.7 0.00 0.20 0.00 60 1017.5
20260507191603 29 213 4.8 9.7 0.00 0.20 0.00 60 1017.5
20260507191503 29 212 6.4 9.7 0.00 0.20 0.00 60 1017.6
20260507191425 29 211 6.4 9.7 0.00 0.20 0.00 60 1017.5
20260507191303 29 210 6.4 9.7 0.00 0.20 0.00 60 1017.5
20260507191203 29 208 6.4 9.7 0.00 0.20 0.00 60 1017.5
20260507191104 29 210 6.4 9.7 0.00 0.20 0.00 60 1017.4
20260507191003 29 209 6.4 9.7 0.00 0.20 0.00 60 1017.4
20260507190903 29 209 6.4 11.3 0.00 0.20 0.00 60 1017.4
20260507190803 29 208 6.4 11.3 0.00 0.20 0.00 60 1017.5
20260507190704 29 204 6.4 11.3 0.00 0.20 0.00 60 1017.5
20260507190624 29 201 6.4 11.3 0.00 0.20 0.00 60 1017.7
20260507190504 29 200 6.4 11.3 0.00 0.20 0.00 60 1017.6
20260507190403 29 201 6.4 11.3 0.00 0.20 0.00 60 1017.6
20260507190324 29 201 6.4 11.3 0.00 0.20 0.00 60 1017.7
20260507190203 29 205 4.8 11.3 0.00 0.20 0.00 60 1017.5
20260507190004 29 206 6.4 11.3 0.00 0.20 0.00 60 1017.6
20260507185904 29 203 4.8 6.4 0.00 0.20 0.00 60 1017.5
20260507185803 29 207 4.8 6.4 0.00 0.20 0.00 60 1017.7
20260507185703 29 206 4.8 6.4 0.00 0.20 0.00 60 1017.7
20260507185603 29 211 4.8 6.4 0.00 0.20 0.00 60 1017.6
20260507185525 29 211 4.8 6.4 0.00 0.20 0.00 60 1017.5
20260507185403 29 213 4.8 6.4 0.00 0.20 0.00 60 1017.6
20260507185305 29 212 4.8 6.4 0.00 0.20 0.00 60 1017.6
20260507185203 29 210 3.2 6.4 0.00 0.20 0.00 60 1017.6
20260507185103 29 206 3.2 6.4 0.00 0.20 0.00 60 1017.7
20260507185025 29 206 3.2 6.4 0.00 0.20 0.00 60 1017.4
20260507184903 29 207 3.2 6.4 0.00 0.20 0.00 60 1017.5
20260507184803 29 202 3.2 6.4 0.00 0.20 0.00 60 1017.6
20260507184703 29 205 3.2 6.4 0.00 0.20 0.00 60 1017.8
20260507184624 29 205 3.2 6.4 0.00 0.20 0.00 60 1017.7
20260507184504 29 206 3.2 6.4 0.00 0.20 0.00 60 1017.5
20260507184403 29 205 3.2 6.4 0.00 0.20 0.00 60 1017.6
20260507184304 29 210 3.2 4.8 0.00 0.20 0.00 60 1017.7
20260507184224 29 207 1.6 4.8 0.00 0.20 0.00 60 1017.5
20260507184103 29 220 1.6 4.8 0.00 0.20 0.00 60 1017.6
20260507184003 29 223 1.6 4.8 0.00 0.20 0.00 60 1017.7
20260507183903 29 228 1.6 3.2 0.00 0.20 0.00 60 1017.6
20260507183824 29 234 1.6 3.2 0.00 0.20 0.00 60 1017.6
20260507183703 29 234 1.6 3.2 0.00 0.20 0.00 60 1017.9
20260507183603 29 238 1.6 3.2 0.00 0.20 0.00 60 1017.6
20260507183503 29 249 1.6 3.2 0.00 0.20 0.00 60 1017.6
20260507183403 29 254 1.6 3.2 0.00 0.20 0.00 60 1017.8
20260507183305 29 255 1.6 3.2 0.00 0.20 0.00 60 1017.7
20260507183203 29 257 1.6 3.2 0.00 0.20 0.00 60 1017.6
20260507183103 29 262 1.6 3.2 0.00 0.20 0.00 60 1017.7
20260507183003 29 268 0.0 1.6 0.00 0.20 0.00 60 1017.6
20260507182903 29 269 0.0 1.6 0.00 0.20 0.20 60 1017.7
20260507182824 29 269 0.0 1.6 0.00 0.23 0.20 60 1017.6
20260507182703 29 272 0.0 1.6 0.00 0.23 0.20 60 1017.7
20260507182603 29 278 1.6 1.6 0.00 0.23 0.20 60 1017.5
20260507182503 29 281 1.6 1.6 0.00 0.23 0.20 60 1017.7
20260507182425 29 285 1.6 3.2 0.00 0.23 0.20 60 1017.7
20260507182306 29 286 1.6 3.2 0.00 0.23 0.20 60 1017.5
20260507182224 29 286 1.6 3.2 0.00 0.23 0.20 60 1017.8
20260507182103 29 285 1.6 3.2 0.00 0.23 0.20 60 1017.7
20260507182024 29 285 1.6 3.2 0.00 0.23 0.20 60 1017.6
20260507181903 29 285 1.6 3.2 0.00 0.23 0.20 60 1017.7
20260507181803 29 286 0.0 3.2 0.00 0.23 0.20 60 1017.7
20260507181703 29 276 0.0 3.2 0.00 0.23 0.20 60 1017.7
20260507181603 29 264 0.0 3.2 0.00 0.23 0.20 60 1017.5
20260507181503 29 240 1.6 3.2 0.00 0.23 0.20 60 1017.7
20260507181403 29 220 1.6 3.2 0.00 0.23 0.20 60 1017.7
20260507181303 29 218 1.6 3.2 0.00 0.23 0.20 60 1017.8
20260507181205 29 216 1.6 3.2 0.00 0.23 0.20 60 1017.7
20260507181103 29 214 1.6 3.2 0.00 0.23 0.20 60 1017.6
20260507181003 29 214 1.6 3.2 0.00 0.23 0.20 60 1017.6
20260507180924 29 212 1.6 3.2 0.00 0.23 0.20 60 1017.8
20260507180803 29 207 1.6 3.2 0.00 0.23 0.20 60 1017.6
20260507180703 29 200 1.6 3.2 0.00 0.23 0.20 60 1017.8
20260507180603 29 189 1.6 3.2 0.00 0.23 0.20 60 1017.7
20260507180503 29 178 1.6 3.2 0.00 0.23 0.20 60 1017.5
20260507180424 29 174 1.6 3.2 0.00 0.23 0.20 60 1017.6
20260507180303 29 166 1.6 3.2 0.00 0.23 0.20 60 1017.7
20260507180203 29 158 1.6 3.2 0.00 0.23 0.20 60 1017.5
20260507180103 29 156 1.6 3.2 0.00 0.23 0.20 60 1017.6
20260507180003 29 154 1.6 3.2 0.00 0.23 0.20 60 1017.5
20260507175903 29 150 1.6 3.2 0.00 0.23 0.20 60 1017.4
20260507175803 29 143 1.6 3.2 0.00 0.23 0.20 60 1017.7
20260507175703 29 135 1.6 3.2 0.00 0.23 0.20 60 1017.4
20260507175603 29 131 1.6 3.2 0.00 0.23 0.20 60 1017.5
20260507175503 29 127 1.6 3.2 0.00 0.23 0.20 60 1017.6
20260507175405 29 128 1.6 3.2 0.00 0.23 0.20 60 1017.5
20260507175306 29 128 1.6 3.2 0.00 0.23 0.20 60 1017.4
20260507175203 29 129 1.6 3.2 0.00 0.23 0.20 60 1017.6
20260507175124 29 128 1.6 3.2 0.00 0.23 0.20 60 1017.6
20260507175003 29 126 1.6 3.2 0.00 0.23 0.20 60 1017.6
20260507174924 29 126 1.6 3.2 0.00 0.23 0.20 60 1017.5
20260507174803 29 126 1.6 3.2 0.00 0.23 0.20 60 1017.6
20260507174724 29 129 1.6 3.2 0.00 0.23 0.20 60 1017.7
20260507174603 29 139 1.6 3.2 0.00 0.23 0.20 60 1017.5
20260507174503 29 144 1.6 3.2 0.00 0.23 0.20 60 1017.5
20260507174403 29 154 1.6 3.2 0.00 0.23 0.20 60 1017.4
20260507174303 29 168 1.6 3.2 0.00 0.23 0.20 60 1017.5
20260507174224 29 180 1.6 3.2 0.00 0.23 0.20 60 1017.5
20260507174103 29 187 1.6 1.6 0.00 0.23 0.20 60 1017.6
20260507174003 29 183 1.6 3.2 0.00 0.23 0.20 60 1017.6
20260507173903 29 179 1.6 3.2 0.00 0.23 0.20 60 1017.5
20260507173803 29 180 1.6 3.2 0.00 0.23 0.20 60 1017.7
20260507173703 29 181 1.6 3.2 0.00 0.23 0.20 60 1017.6
20260507173626 29 183 1.6 3.2 0.00 0.23 0.20 60 1017.6
20260507173504 29 185 1.6 3.2 0.00 0.23 0.20 60 1017.7
20260507173424 29 185 1.6 3.2 0.00 0.23 0.20 60 1017.7
20260507173324 29 185 1.6 3.2 0.00 0.23 0.20 60 1017.7
20260507173203 29 184 1.6 3.2 0.00 0.23 0.20 60 1017.7
20260507173103 29 183 1.6 3.2 0.00 0.23 0.20 60 1017.7
20260507173004 29 182 1.6 3.2 0.00 0.23 0.20 60 1017.6
20260507172903 29 185 1.6 3.2 0.00 0.23 0.20 60 1017.7
20260507172804 29 181 1.6 3.2 0.00 0.23 0.20 60 1017.7
20260507172703 29 176 1.6 3.2 0.00 0.23 0.20 60 1017.6
20260507172603 29 172 1.6 3.2 0.00 0.23 0.20 60 1017.6
20260507172503 29 170 1.6 3.2 0.00 0.23 0.20 60 1017.6
20260507172403 29 172 1.6 3.2 0.00 0.23 0.20 60 1017.7
20260507172307 29 176 1.6 3.2 0.00 0.23 0.20 60 1017.7
20260507172203 29 184 1.6 3.2 0.00 0.23 0.20 60 1017.8
20260507172103 29 188 1.6 3.2 0.00 0.23 0.20 60 1017.8
20260507172024 29 192 1.6 3.2 0.00 0.23 0.20 60 1017.9
20260507171903 29 201 3.2 3.2 0.00 0.23 0.20 60 1017.7
20260507171804 29 207 3.2 3.2 0.00 0.23 0.20 60 1018.0
20260507171704 29 212 1.6 3.2 0.00 0.23 0.20 60 1017.9
20260507171603 29 213 1.6 3.2 0.00 0.23 0.20 60 1017.7
20260507171503 29 217 1.6 3.2 0.00 0.23 0.20 60 1017.9
20260507171403 29 213 1.6 3.2 0.00 0.23 0.20 60 1017.8
20260507171304 29 206 1.6 3.2 0.00 0.23 0.20 60 1017.8
20260507171203 29 200 3.2 4.8 0.00 0.23 0.20 60 1017.8
20260507171103 29 191 3.2 4.8 0.00 0.23 0.20 60 1017.7
20260507171003 29 186 3.2 4.8 0.00 0.23 0.20 60 1017.9
20260507170903 29 181 3.2 4.8 0.00 0.23 0.20 60 1017.8
20260507170803 29 178 3.2 4.8 0.00 0.23 0.20 60 1017.8
20260507170703 29 178 3.2 4.8 0.00 0.23 0.20 60 1017.7
20260507170603 29 177 3.2 4.8 0.00 0.23 0.20 60 1017.8
20260507170503 29 176 3.2 4.8 0.00 0.23 0.20 60 1017.7
20260507170403 29 176 3.2 4.8 0.00 0.23 0.20 60 1017.7
20260507170303 29 178 3.2 4.8 0.00 0.23 0.20 60 1017.7
20260507170224 29 179 3.2 4.8 0.00 0.23 0.20 60 1017.7
20260507170126 29 179 3.2 4.8 0.00 0.23 0.20 60 1017.9
20260507170003 29 177 3.2 3.2 0.00 0.23 0.20 60 1017.8
20260507165903 29 173 3.2 3.2 0.00 0.23 0.20 60 1017.7
20260507165803 29 170 3.2 3.2 0.00 0.23 0.20 60 1017.7
20260507165703 29 167 3.2 3.2 0.00 0.23 0.20 60 1017.8
20260507165624 29 165 3.2 4.8 0.00 0.23 0.20 60 1017.6
20260507165524 29 163 3.2 4.8 0.00 0.23 0.20 60 1017.8
20260507165403 29 160 3.2 4.8 0.00 0.23 0.20 60 1017.7
20260507165306 29 161 3.2 4.8 0.00 0.23 0.20 60 1017.8
20260507165224 29 160 3.2 4.8 0.00 0.23 0.20 60 1017.7
20260507165103 29 159 3.2 4.8 0.00 0.23 0.20 60 1017.7
20260507165004 29 159 3.2 4.8 0.00 0.23 0.20 60 1017.7
20260507164904 29 163 3.2 4.8 0.00 0.23 0.20 60 1017.7
20260507164803 29 168 3.2 4.8 0.00 0.23 0.20 60 1017.7
20260507164703 29 175 1.6 4.8 0.00 0.23 0.20 60 1017.7
20260507164603 29 195 1.6 4.8 0.00 0.23 0.20 60 1017.8
20260507164505 29 227 1.6 4.8 0.00 0.23 0.20 60 1017.8
20260507164403 29 246 1.6 3.2 0.00 0.23 0.20 60 1017.6
20260507164303 29 261 1.6 3.2 0.00 0.23 0.20 60 1017.6
20260507164203 29 266 1.6 3.2 0.00 0.23 0.20 60 1017.8
20260507164103 29 266 1.6 3.2 0.00 0.23 0.20 60 1017.7
20260507164003 29 266 1.6 3.2 0.00 0.23 0.20 60 1017.7
20260507163903 29 258 1.6 3.2 0.00 0.23 0.20 60 1017.7
20260507163824 29 251 1.6 3.2 0.00 0.23 0.20 60 1017.6
20260507163703 29 239 1.6 3.2 0.00 0.23 0.20 60 1017.7
20260507163603 29 231 1.6 3.2 0.00 0.23 0.20 60 1017.7
20260507163503 29 216 1.6 3.2 0.00 0.23 0.20 60 1017.7
20260507163403 29 207 1.6 3.2 0.00 0.23 0.20 60 1017.8
20260507163324 29 208 1.6 3.2 0.00 0.23 0.20 60 1017.8
20260507163224 29 209 1.6 3.2 0.00 0.23 0.20 60 1017.8
20260507163103 29 210 1.6 3.2 0.00 0.23 0.20 60 1017.7
20260507163024 29 212 3.2 3.2 0.00 0.23 0.20 60 1017.7
20260507162926 29 216 3.2 3.2 0.00 0.23 0.20 60 1017.8
20260507162803 29 218 3.2 3.2 0.00 0.23 0.20 60 1017.8
20260507162703 29 219 1.6 3.2 0.00 0.23 0.20 60 1017.7
20260507162603 29 222 1.6 3.2 0.00 0.23 0.20 60 1017.7
20260507162503 29 228 1.6 3.2 0.00 0.23 0.20 60 1017.6
20260507162403 29 229 1.6 3.2 0.00 0.23 0.20 60 1017.8
20260507162306 29 230 1.6 3.2 0.00 0.23 0.20 60 1017.8
20260507162203 29 233 1.6 3.2 0.00 0.23 0.20 60 1017.7
20260507162103 29 243 0.0 3.2 0.00 0.23 0.20 60 1017.7
20260507162003 29 247 0.0 3.2 0.00 0.23 0.20 60 1017.5
20260507161903 29 262 0.0 1.6 0.00 0.23 0.20 60 1017.7
20260507161824 29 263 0.0 1.6 0.00 0.23 0.20 60 1017.6
20260507161703 29 263 0.0 1.6 0.00 0.23 0.20 60 1017.6
20260507161603 29 263 0.0 1.6 0.00 0.23 0.20 60 1017.5
20260507161503 29 261 0.0 1.6 0.00 0.23 0.20 60 1017.5
20260507161424 29 256 0.0 1.6 0.00 0.23 0.20 60 1017.7
20260507161303 29 256 0.0 1.6 0.00 0.23 0.20 60 1017.6
20260507161203 29 196 0.0 1.6 0.00 0.23 0.20 60 1017.8
20260507161103 29 183 0.0 1.6 0.00 0.23 0.20 60 1017.4
20260507161003 29 169 0.0 1.6 0.00 0.23 0.20 60 1017.6
20260507160924 29 169 0.0 1.6 0.00 0.23 0.20 60 1017.6
20260507160803 29 169 0.0 1.6 0.00 0.23 0.20 60 1017.5
20260507160703 29 169 1.6 3.2 0.00 0.23 0.20 60 1017.5
20260507160605 29 169 1.6 3.2 0.00 0.23 0.20 60 1017.5
20260507160503 29 165 1.6 4.8 0.00 0.23 0.20 60 1017.4
20260507160403 29 166 1.6 4.8 0.00 0.23 0.20 60 1017.5
20260507160303 29 167 1.6 4.8 0.00 0.23 0.20 60 1017.5
20260507160203 29 167 1.6 4.8 0.00 0.23 0.20 60 1017.4
20260507160103 29 167 1.6 4.8 0.00 0.23 0.20 60 1017.3
20260507160003 29 167 3.2 4.8 0.00 0.23 0.20 60 1017.5
20260507155903 29 167 3.2 4.8 0.00 0.23 0.20 60 1017.4
20260507155803 29 168 1.6 4.8 0.00 0.23 0.20 60 1017.4
20260507155703 29 169 1.6 4.8 0.00 0.23 0.20 60 1017.4
20260507155603 29 170 3.2 4.8 0.00 0.23 0.20 60 1017.4
20260507155503 29 174 1.6 4.8 0.00 0.23 0.20 60 1017.4
20260507155403 29 176 1.6 3.2 0.00 0.23 0.20 60 1017.5
20260507155306 29 177 1.6 3.2 0.00 0.23 0.20 60 1017.5
20260507155203 29 185 1.6 3.2 0.00 0.23 0.20 60 1017.4
20260507155103 29 192 1.6 3.2 0.00 0.23 0.20 60 1017.3
20260507155005 29 216 1.6 3.2 0.00 0.23 0.20 60 1017.5
20260507154903 29 221 1.6 3.2 0.00 0.23 0.20 60 1017.3
20260507154803 29 225 1.6 4.8 0.00 0.23 0.20 60 1017.2
20260507154724 29 234 1.6 4.8 0.00 0.23 0.20 60 1017.3
20260507154603 29 247 3.2 6.4 0.00 0.23 0.20 60 1017.4
20260507154524 29 248 3.2 6.4 0.00 0.23 0.20 60 1017.3
20260507154403 29 248 3.2 6.4 0.00 0.23 0.20 60 1017.2
20260507154303 29 247 3.2 6.4 0.00 0.23 0.20 60 1017.3
20260507154203 29 248 3.2 6.4 0.00 0.23 0.20 60 1017.3
20260507154103 29 249 4.8 6.4 0.00 0.23 0.20 60 1017.3
20260507154003 29 249 4.8 6.4 0.00 0.23 0.20 60 1017.2
20260507153903 29 252 4.8 6.4 0.00 0.23 0.20 60 1017.3
20260507153803 29 252 4.8 6.4 0.00 0.23 0.20 60 1017.2
20260507153703 29 251 4.8 6.4 0.00 0.23 0.20 60 1017.2
20260507153603 29 249 4.8 6.4 0.00 0.23 0.20 60 1017.2
20260507153504 29 246 4.8 4.8 0.00 0.23 0.20 60 1017.2
20260507153403 29 240 4.8 4.8 0.00 0.23 0.20 60 1017.0
20260507153303 29 239 3.2 4.8 0.00 0.23 0.20 60 1017.1
20260507153204 29 232 3.2 4.8 0.00 0.23 0.20 60 1016.9
20260507153103 29 222 3.2 4.8 0.00 0.23 0.20 60 1017.1
20260507153003 29 218 3.2 4.8 0.00 0.23 0.20 60 1017.1
20260507152903 29 216 3.2 4.8 0.00 0.23 0.20 60 1017.2
20260507152803 29 221 3.2 4.8 0.00 0.23 0.20 60 1017.1
20260507152703 29 227 3.2 4.8 0.00 0.23 0.20 60 1017.0
20260507152603 29 237 3.2 4.8 0.00 0.23 0.20 60 1017.1
20260507152503 29 247 3.2 4.8 0.00 0.23 0.20 60 1017.0
20260507152403 29 253 3.2 4.8 0.00 0.23 0.20 60 1017.1
20260507152306 29 256 3.2 4.8 0.00 0.23 0.20 60 1017.1
20260507152203 29 255 4.8 4.8 0.00 0.23 0.20 60 1017.0
20260507152103 29 256 4.8 4.8 0.00 0.23 0.20 60 1017.0
20260507152024 29 256 4.8 6.4 0.00 0.23 0.20 60 1017.1
20260507151924 29 257 4.8 6.4 0.00 0.23 0.20 60 1017.1
20260507151803 29 254 4.8 9.7 0.00 0.23 0.20 60 1017.0
20260507151703 29 254 4.8 9.7 0.00 0.23 0.20 60 1017.0
20260507151605 29 253 6.4 9.7 0.00 0.23 0.20 60 1017.0
20260507151504 29 251 6.4 9.7 0.00 0.23 0.20 60 1016.9
20260507151403 29 251 6.4 9.7 0.00 0.23 0.20 60 1017.1
20260507151303 29 250 6.4 9.7 0.00 0.23 0.20 60 1016.9
20260507151203 29 251 6.4 9.7 0.00 0.23 0.20 60 1016.9
20260507151103 29 251 6.4 9.7 0.00 0.23 0.20 60 1017.0
20260507151003 29 251 6.4 9.7 0.00 0.23 0.20 60 1017.0
20260507150903 29 250 6.4 9.7 0.00 0.23 0.20 60 1016.9
20260507150803 29 251 6.4 9.7 0.00 0.23 0.20 60 1016.9
20260507150704 29 253 6.4 9.7 0.00 0.23 0.20 60 1017.1
20260507150603 29 254 6.4 9.7 0.00 0.23 0.20 60 1017.1
20260507150504 29 256 6.4 9.7 0.00 0.23 0.20 60 1017.0
20260507150424 29 257 4.8 9.7 0.00 0.23 0.20 60 1016.9
20260507150303 29 257 4.8 6.4 0.00 0.23 0.20 60 1016.9
20260507150224 29 257 4.8 6.4 0.00 0.23 0.20 60 1017.0
20260507150104 29 255 4.8 6.4 0.00 0.23 0.20 60 1016.9
20260507150004 29 256 6.4 6.4 0.00 0.23 0.20 60 1016.7
20260507145903 29 255 6.4 6.4 0.00 0.23 0.20 60 1016.7
20260507145805 29 254 6.4 6.4 0.00 0.23 0.20 60 1016.9
20260507145704 29 254 6.4 6.4 0.00 0.23 0.20 60 1016.7
20260507145603 29 254 6.4 6.4 0.00 0.23 0.20 60 1016.6
20260507145503 29 254 6.4 6.4 0.00 0.23 0.20 60 1016.7
20260507145403 29 254 6.4 6.4 0.00 0.23 0.20 60 1016.7
20260507145306 29 253 6.4 6.4 0.00 0.23 0.20 60 1016.7
20260507145203 29 251 6.4 6.4 0.00 0.23 0.20 60 1016.7
20260507145103 29 252 6.4 6.4 0.00 0.23 0.20 60 1016.7
20260507145003 29 251 4.8 6.4 0.00 0.23 0.20 60 1016.4
20260507144903 29 251 4.8 6.4 0.00 0.23 0.20 60 1016.6
20260507144803 29 252 4.8 6.4 0.00 0.23 0.20 60 1016.7
20260507144703 29 248 4.8 6.4 0.00 0.23 0.20 60 1016.5
20260507144603 29 248 4.8 6.4 0.00 0.23 0.20 60 1016.5
20260507144524 29 248 4.8 6.4 0.00 0.23 0.20 60 1016.6
20260507144403 29 247 4.8 6.4 0.00 0.23 0.20 60 1016.7
20260507144304 29 248 3.2 6.4 0.00 0.23 0.20 60 1016.6
20260507144204 29 248 3.2 4.8 0.00 0.23 0.20 60 1016.9
20260507144104 29 247 3.2 4.8 0.00 0.23 0.20 60 1016.7
20260507144003 29 247 3.2 4.8 0.00 0.23 0.20 60 1016.6
20260507143903 29 249 3.2 4.8 0.00 0.23 0.20 60 1016.6
20260507143824 29 249 4.8 6.4 0.00 0.23 0.20 60 1016.5
20260507143724 29 251 4.8 6.4 0.00 0.23 0.20 60 1016.5
20260507143624 29 253 4.8 6.4 0.00 0.23 0.20 60 1016.5
20260507143503 29 251 4.8 6.4 0.00 0.23 0.20 60 1016.6
20260507143403 29 250 4.8 6.4 0.00 0.23 0.20 60 1016.6
20260507143303 29 249 4.8 6.4 0.00 0.23 0.20 60 1016.6
20260507143203 29 250 4.8 6.4 0.00 0.23 0.20 60 1016.6
20260507143103 29 249 4.8 6.4 0.00 0.23 0.20 60 1016.6
20260507143004 29 245 4.8 6.4 0.00 0.23 0.20 60 1016.6
20260507142924 29 242 4.8 6.4 0.00 0.23 0.20 60 1016.6
20260507142825 29 241 3.2 4.8 0.00 0.23 0.20 60 1016.5
20260507142704 29 238 3.2 4.8 0.00 0.23 0.20 60 1016.4
20260507142604 29 237 3.2 4.8 0.00 0.23 0.20 60 1016.5
20260507142504 29 237 3.2 4.8 0.00 0.23 0.20 60 1016.6
20260507142404 29 236 3.2 4.8 0.00 0.23 0.20 60 1016.4
20260507142306 29 231 3.2 4.8 0.00 0.23 0.20 60 1016.4
20260507142203 29 226 3.2 3.2 0.00 0.23 0.20 60 1016.5
20260507142103 29 222 3.2 4.8 0.00 0.23 0.20 60 1016.3
20260507142003 29 221 3.2 4.8 0.00 0.23 0.20 60 1016.3
20260507141903 29 220 3.2 4.8 0.00 0.23 0.20 60 1016.2
20260507141824 29 218 3.2 4.8 0.00 0.23 0.20 60 1016.3
20260507141703 29 215 3.2 4.8 0.00 0.23 0.20 60 1016.3
20260507141603 29 214 3.2 4.8 0.00 0.23 0.20 60 1016.2
20260507141503 29 212 3.2 4.8 0.00 0.23 0.20 60 1016.3
20260507141403 29 212 3.2 4.8 0.00 0.23 0.20 60 1016.4
20260507141304 29 214 3.2 4.8 0.00 0.23 0.20 60 1016.3
20260507141203 29 214 3.2 4.8 0.00 0.23 0.20 60 1016.2
20260507141103 29 214 3.2 4.8 0.00 0.23 0.20 60 1016.4
20260507141003 29 214 3.2 4.8 0.00 0.23 0.20 60 1016.4
20260507140903 29 211 3.2 4.8 0.00 0.23 0.20 60 1016.3
20260507140803 29 207 3.2 4.8 0.00 0.23 0.20 60 1016.2
20260507140703 29 204 3.2 4.8 0.00 0.23 0.20 60 1016.2
20260507140603 29 202 3.2 4.8 0.00 0.23 0.20 60 1016.3
20260507140504 29 200 3.2 4.8 0.00 0.23 0.20 60 1016.4
20260507140424 29 199 3.2 4.8 0.00 0.23 0.20 60 1016.3
20260507140307 29 190 3.2 3.2 0.00 0.23 0.20 60 1016.3
20260507140225 29 187 3.2 3.2 0.00 0.23 0.20 60 1016.3
20260507140103 29 187 3.2 3.2 0.00 0.23 0.20 60 1016.2
20260507140006 29 186 3.2 3.2 0.00 0.23 0.20 60 1016.3
20260507135924 29 188 1.6 3.2 0.00 0.23 0.20 60 1016.3
20260507135804 29 198 1.6 3.2 0.00 0.23 0.20 60 1016.1
20260507135704 29 197 1.6 3.2 0.00 0.23 0.20 60 1016.3
20260507135624 29 202 1.6 3.2 0.00 0.23 0.20 60 1016.3
20260507135504 29 213 1.6 3.2 0.00 0.23 0.20 60 1016.1
20260507135403 29 219 1.6 3.2 0.00 0.23 0.20 60 1016.2
20260507135306 29 230 1.6 3.2 0.00 0.23 0.20 60 1016.3
20260507135203 29 246 1.6 1.6 0.00 0.23 0.20 60 1016.3
20260507135103 29 224 1.6 4.8 0.00 0.23 0.20 60 1016.3
20260507135024 29 211 1.6 4.8 0.00 0.23 0.20 60 1016.2
20260507134903 29 204 1.6 4.8 0.00 0.23 0.20 60 1016.3
20260507134803 29 195 1.6 6.4 0.00 0.23 0.20 60 1016.2
20260507134705 29 187 3.2 6.4 0.00 0.23 0.20 60 1016.0
20260507134624 29 187 3.2 6.4 0.00 0.23 0.20 60 1016.1
20260507134503 29 184 3.2 6.4 0.00 0.23 0.20 60 1016.1
20260507134403 29 177 3.2 6.4 0.00 0.23 0.20 60 1016.1
20260507134303 29 169 3.2 6.4 0.00 0.23 0.20 60 1016.1
20260507134204 29 162 3.2 6.4 0.00 0.23 0.20 60 1016.2
20260507134124 29 162 3.2 6.4 0.00 0.23 0.20 60 1016.4
20260507134003 29 169 3.2 6.4 0.00 0.23 0.20 60 1016.2
20260507133903 29 169 3.2 6.4 0.00 0.23 0.20 60 1016.0
20260507133803 29 182 3.2 6.4 0.00 0.23 0.20 60 1016.2
20260507133705 29 187 3.2 6.4 0.00 0.23 0.20 60 1016.1
20260507133604 29 198 4.8 6.4 0.00 0.23 0.20 60 1016.3
20260507133524 29 196 4.8 6.4 0.00 0.23 0.20 60 1016.1
20260507133403 29 203 4.8 6.4 0.00 0.23 0.20 60 1016.1
20260507133303 29 208 4.8 6.4 0.00 0.23 0.20 60 1016.1
20260507133203 29 210 4.8 6.4 0.00 0.23 0.20 60 1016.2
20260507133104 29 209 4.8 6.4 0.00 0.23 0.20 60 1015.9
20260507133003 29 206 4.8 6.4 0.00 0.23 0.20 60 1016.1
20260507132903 29 210 4.8 6.4 0.00 0.23 0.20 60 1016.2
20260507132803 29 206 4.8 6.4 0.00 0.23 0.20 60 1016.0
20260507132703 29 204 4.8 6.4 0.00 0.23 0.20 60 1015.9
20260507132603 29 198 4.8 6.4 0.00 0.23 0.20 60 1016.0
20260507132503 29 200 4.8 6.4 0.00 0.23 0.20 60 1016.0
20260507132403 29 198 3.2 4.8 0.00 0.23 0.20 60 1016.1
20260507132307 29 202 3.2 4.8 0.00 0.23 0.20 60 1016.1
20260507132203 29 208 3.2 4.8 0.00 0.23 0.20 60 1016.0
20260507132103 29 214 3.2 4.8 0.00 0.23 0.20 60 1016.0
20260507132003 29 219 3.2 4.8 0.00 0.23 0.20 60 1016.1
20260507131905 29 219 3.2 6.4 0.00 0.23 0.20 60 1016.0
20260507131824 29 219 3.2 6.4 0.00 0.23 0.20 60 1015.9
20260507131703 29 220 3.2 6.4 0.00 0.23 0.20 60 1016.1
20260507131603 29 223 3.2 6.4 0.00 0.23 0.20 60 1016.0
20260507131524 29 223 4.8 6.4 0.00 0.23 0.20 60 1015.8
20260507131403 29 223 3.2 6.4 0.00 0.23 0.20 60 1016.0
20260507131303 29 223 4.8 6.4 0.00 0.23 0.20 60 1016.0
20260507131203 29 226 3.2 6.4 0.00 0.23 0.20 60 1016.0
20260507131105 29 229 3.2 6.4 0.00 0.23 0.20 60 1016.1
20260507131003 29 231 3.2 6.4 0.00 0.23 0.20 60 1015.8
20260507130924 29 230 3.2 6.4 0.00 0.23 0.20 60 1015.8
20260507130803 29 230 3.2 6.4 0.00 0.23 0.20 60 1015.8
20260507130703 29 237 3.2 6.4 0.00 0.23 0.20 60 1015.9
20260507130604 29 241 3.2 6.4 0.00 0.23 0.20 60 1015.8
20260507130524 29 243 3.2 6.4 0.00 0.23 0.20 60 1015.8
20260507130403 29 246 3.2 6.4 0.00 0.23 0.20 60 1015.6
20260507130303 29 248 4.8 6.4 0.00 0.23 0.20 60 1015.8
20260507130224 29 248 4.8 6.4 0.00 0.23 0.20 60 1015.8
20260507130103 29 241 4.8 6.4 0.00 0.23 0.20 60 1015.5
20260507130004 29 237 4.8 6.4 0.00 0.23 0.20 60 1015.6
20260507125924 29 237 4.8 6.4 0.00 0.23 0.20 60 1015.6
20260507125803 29 241 4.8 6.4 0.00 0.23 0.20 60 1015.8
20260507125704 29 243 3.2 6.4 0.00 0.23 0.20 60 1015.6
20260507125603 29 243 3.2 4.8 0.00 0.23 0.20 60 1015.6
20260507125504 29 245 3.2 4.8 0.00 0.23 0.20 60 1015.6
20260507125404 29 245 3.2 4.8 0.00 0.23 0.20 60 1015.5
20260507125306 29 241 3.2 4.8 0.00 0.23 0.20 60 1015.4
20260507125203 29 242 3.2 4.8 0.00 0.23 0.20 60 1015.6
20260507125103 29 248 3.2 4.8 0.00 0.23 0.20 60 1015.5
20260507125004 29 254 3.2 6.4 0.00 0.23 0.20 60 1015.4
20260507124903 29 257 4.8 6.4 0.00 0.23 0.20 60 1015.3
20260507124803 29 256 4.8 6.4 0.00 0.23 0.20 60 1015.5
20260507124703 29 255 4.8 6.4 0.00 0.23 0.20 60 1015.5
20260507124603 29 255 4.8 6.4 0.00 0.23 0.20 60 1015.6
20260507124524 29 255 4.8 6.4 0.00 0.23 0.20 60 1015.8
20260507124403 29 255 6.4 6.4 0.00 0.23 0.20 60 1015.5
20260507124303 29 257 6.4 6.4 0.00 0.23 0.20 60 1015.4
20260507124203 29 256 6.4 6.4 0.00 0.23 0.20 60 1015.5
20260507124103 29 257 6.4 6.4 0.00 0.23 0.20 60 1015.4
20260507124003 29 256 6.4 6.4 0.00 0.23 0.20 60 1015.4
20260507123903 29 255 6.4 6.4 0.00 0.23 0.20 60 1015.4
20260507123803 29 256 6.4 9.7 0.00 0.23 0.20 60 1015.5
20260507123705 29 256 6.4 9.7 0.00 0.23 0.20 60 1015.6
20260507123624 29 257 6.4 9.7 0.00 0.23 0.20 60 1015.4
20260507123503 29 253 6.4 9.7 0.00 0.23 0.20 60 1015.5
20260507123424 29 253 6.4 9.7 0.00 0.23 0.20 60 1015.4
20260507123303 29 249 6.4 9.7 0.00 0.23 0.20 60 1015.4
20260507123203 29 248 6.4 9.7 0.00 0.23 0.20 60 1015.5
20260507123103 29 250 6.4 9.7 0.00 0.23 0.20 60 1015.5
20260507123003 29 250 6.4 9.7 0.00 0.23 0.20 60 1015.4
20260507122903 29 249 6.4 9.7 0.00 0.23 0.20 60 1015.3
20260507122803 29 245 4.8 9.7 0.00 0.23 0.20 60 1015.3
20260507122705 29 246 4.8 9.7 0.00 0.23 0.20 60 1015.4
20260507122603 29 242 4.8 9.7 0.00 0.23 0.20 60 1015.3
20260507122503 29 244 4.8 9.7 0.00 0.23 0.20 60 1015.4
20260507122425 29 242 6.4 11.3 0.00 0.23 0.20 60 1015.4
20260507122306 29 247 6.4 11.3 0.00 0.23 0.20 60 1015.2
20260507122203 29 248 6.4 11.3 0.00 0.23 0.20 60 1015.3
20260507122104 29 245 6.4 11.3 0.00 0.23 0.20 60 1015.3
20260507122005 29 244 6.4 11.3 0.00 0.23 0.20 60 1015.3
20260507121903 29 243 8.0 11.3 0.00 0.23 0.20 60 1015.3
20260507121825 29 242 8.0 11.3 0.00 0.23 0.20 60 1015.4
20260507121703 29 241 8.0 11.3 0.00 0.23 0.20 60 1015.4
20260507121603 29 240 8.0 11.3 0.00 0.23 0.20 60 1015.3
20260507121504 29 240 8.0 11.3 0.00 0.23 0.20 60 1015.4
20260507121403 29 238 8.0 11.3 0.00 0.23 0.20 60 1015.5
20260507121303 29 235 8.0 11.3 0.00 0.23 0.20 60 1015.4
20260507121204 29 234 8.0 11.3 0.00 0.23 0.20 60 1015.4
20260507121103 29 235 8.0 11.3 0.00 0.23 0.20 60 1015.4
20260507121003 29 235 8.0 11.3 0.00 0.23 0.20 60 1015.4
20260507120903 29 235 8.0 11.3 0.00 0.23 0.20 60 1015.5
20260507120824 29 237 8.0 11.3 0.00 0.23 0.20 60 1015.4
20260507120703 29 240 8.0 11.3 0.00 0.23 0.20 60 1015.5
20260507120603 29 242 8.0 11.3 0.00 0.23 0.20 60 1015.5
20260507120503 29 244 8.0 11.3 0.00 0.23 0.20 60 1015.5
20260507120425 29 244 8.0 11.3 0.00 0.23 0.20 60 1015.4
20260507120303 29 244 8.0 9.7 0.00 0.23 0.20 60 1015.4
20260507120204 29 244 8.0 9.7 0.00 0.23 0.20 60 1015.4
20260507120103 29 244 6.4 9.7 0.00 0.23 0.20 60 1015.4
20260507120004 29 247 6.4 9.7 0.00 0.23 0.20 60 1015.4
20260507115903 29 245 6.4 9.7 0.00 0.23 0.20 60 1015.5
20260507115803 29 245 6.4 9.7 0.00 0.23 0.20 60 1015.4
20260507115703 29 244 6.4 9.7 0.00 0.23 0.20 60 1015.4
20260507115625 29 241 6.4 9.7 0.00 0.23 0.20 60 1015.3
20260507115524 29 236 6.4 9.7 0.00 0.23 0.20 60 1015.4
20260507115424 29 233 4.8 9.7 0.00 0.23 0.20 60 1015.2
20260507115307 29 229 4.8 9.7 0.00 0.23 0.20 60 1015.2
20260507115203 29 228 4.8 6.4 0.00 0.23 0.20 60 1015.3
20260507115103 29 223 4.8 9.7 0.00 0.23 0.20 60 1015.2
20260507115003 29 216 4.8 9.7 0.00 0.23 0.20 60 1015.1
20260507114925 29 213 4.8 9.7 0.00 0.23 0.20 60 1015.1
20260507114803 29 211 4.8 9.7 0.00 0.23 0.20 60 1015.0
20260507114724 29 209 4.8 9.7 0.00 0.23 0.20 60 1015.0
20260507114604 29 215 4.8 9.7 0.00 0.23 0.20 60 1015.1
20260507114503 29 219 4.8 9.7 0.00 0.23 0.20 60 1015.2
20260507114403 29 218 4.8 9.7 0.00 0.23 0.20 60 1015.2
20260507114304 29 218 4.8 9.7 0.00 0.23 0.20 60 1015.1
20260507114203 29 218 4.8 9.7 0.00 0.23 0.20 60 1015.2
20260507114124 29 218 4.8 9.7 0.00 0.23 0.20 60 1015.1
20260507114003 29 217 4.8 9.7 0.00 0.23 0.20 60 1015.1
20260507113924 29 215 6.4 9.7 0.00 0.23 0.20 60 1015.2
20260507113824 29 212 6.4 11.3 0.00 0.23 0.20 60 1015.1
20260507113703 29 209 6.4 11.3 0.00 0.23 0.20 60 1015.1
20260507113603 29 206 6.4 11.3 0.00 0.23 0.20 60 1015.1
20260507113503 29 205 6.4 11.3 0.00 0.23 0.20 60 1015.1
20260507113403 29 206 6.4 11.3 0.00 0.23 0.20 60 1015.1
20260507113303 29 206 6.4 11.3 0.00 0.23 0.20 60 1014.9
20260507113203 29 208 6.4 12.9 0.00 0.23 0.20 60 1014.9
20260507113124 29 211 6.4 12.9 0.00 0.23 0.20 60 1015.0
20260507113004 29 213 6.4 12.9 0.00 0.23 0.20 60 1014.9
20260507112924 29 215 6.4 12.9 0.00 0.23 0.20 60 1015.1
20260507112803 29 220 6.4 12.9 0.00 0.23 0.20 60 1014.9
20260507112705 29 224 6.4 12.9 0.00 0.23 0.20 60 1015.0
20260507112603 29 226 6.4 12.9 0.00 0.23 0.20 60 1015.0
20260507112503 29 228 8.0 12.9 0.00 0.23 0.20 60 1014.9
20260507112403 29 228 8.0 12.9 0.00 0.23 0.20 60 1015.0
20260507112306 29 232 6.4 12.9 0.00 0.23 0.20 60 1014.9
20260507112203 29 233 6.4 12.9 0.00 0.23 0.20 60 1015.1
20260507112103 29 235 6.4 12.9 0.00 0.23 0.20 60 1015.0
20260507112003 29 237 8.0 12.9 0.00 0.23 0.20 60 1015.1
20260507111904 29 239 6.4 12.9 0.00 0.23 0.20 60 1014.9
20260507111803 29 240 6.4 12.9 0.00 0.23 0.20 60 1015.1
20260507111703 29 244 6.4 12.9 0.00 0.23 0.20 60 1015.0
20260507111603 29 247 6.4 12.9 0.00 0.23 0.20 60 1015.0
20260507111504 29 248 6.4 11.3 0.00 0.23 0.20 60 1015.2
20260507111404 29 250 6.4 11.3 0.00 0.23 0.20 60 1015.0
20260507111303 29 250 6.4 11.3 0.00 0.23 0.20 60 1015.0
20260507111203 29 249 6.4 11.3 0.00 0.23 0.20 60 1014.9
20260507111105 29 245 6.4 11.3 0.00 0.23 0.20 60 1015.1
20260507111003 29 243 6.4 9.7 0.00 0.23 0.20 60 1014.9
20260507110903 29 243 6.4 9.7 0.00 0.23 0.20 60 1014.9
20260507110824 29 243 6.4 9.7 0.00 0.23 0.20 60 1015.0
20260507110703 29 242 6.4 9.7 0.00 0.23 0.20 60 1014.8
20260507110603 29 235 6.4 9.7 0.00 0.23 0.20 60 1014.8
20260507110504 29 235 6.4 9.7 0.00 0.23 0.20 60 1015.1
20260507110403 29 229 6.4 11.3 0.00 0.23 0.20 60 1015.0
20260507110303 29 226 6.4 11.3 0.00 0.23 0.20 60 1015.0
20260507110203 29 224 6.4 11.3 0.00 0.23 0.20 60 1015.1
20260507110103 29 223 6.4 11.3 0.00 0.23 0.20 60 1015.0
20260507110003 29 222 6.4 11.3 0.00 0.23 0.20 60 1015.0
20260507105924 29 223 8.0 12.9 0.00 0.23 0.20 60 1015.1
20260507105803 29 215 8.0 12.9 0.00 0.23 0.20 60 1015.0
20260507105704 29 215 8.0 12.9 0.00 0.23 0.20 60 1015.1
20260507105603 29 214 8.0 12.9 0.00 0.23 0.20 60 1015.1
20260507105504 29 216 6.4 12.9 0.00 0.23 0.20 60 1015.1
20260507105404 29 219 8.0 12.9 0.00 0.23 0.20 60 1015.1
20260507105306 29 221 8.0 12.9 0.00 0.23 0.20 60 1015.0
20260507105203 29 222 6.4 12.9 0.00 0.23 0.20 60 1015.0
20260507105124 29 222 8.0 14.5 0.00 0.23 0.20 60 1015.1
20260507105003 29 223 8.0 14.5 0.00 0.23 0.20 60 1014.8
20260507104903 29 221 8.0 14.5 0.00 0.23 0.20 60 1015.1
20260507104803 29 221 8.0 14.5 0.00 0.23 0.20 60 1015.1
20260507104724 29 220 9.7 14.5 0.00 0.23 0.20 60 1015.1
20260507104603 29 219 9.7 14.5 0.00 0.23 0.20 60 1015.1
20260507104504 29 216 9.7 14.5 0.00 0.23 0.20 60 1015.1
20260507104403 29 215 11.3 14.5 0.00 0.23 0.20 60 1015.1
20260507104303 29 211 11.3 14.5 0.00 0.23 0.20 60 1015.1
20260507104224 29 210 11.3 14.5 0.00 0.23 0.20 60 1015.2
20260507104103 29 209 11.3 14.5 0.00 0.23 0.20 60 1015.2
20260507104003 29 210 11.3 14.5 0.00 0.23 0.20 60 1015.2
20260507103903 29 209 11.3 14.5 0.00 0.23 0.20 60 1015.0
20260507103805 29 205 11.3 14.5 0.00 0.23 0.20 60 1015.2
20260507103703 29 205 9.7 14.5 0.00 0.23 0.20 60 1015.0
20260507103603 29 203 9.7 14.5 0.00 0.23 0.20 60 1015.2
20260507103503 29 204 9.7 14.5 0.00 0.23 0.20 60 1015.0
20260507103424 29 200 8.0 12.9 0.00 0.23 0.20 60 1015.1
20260507103303 29 197 8.0 12.9 0.00 0.23 0.20 60 1015.1
20260507103203 29 196 8.0 12.9 0.00 0.23 0.20 60 1015.0
20260507103103 29 198 8.0 12.9 0.00 0.23 0.20 60 1015.0
20260507103003 29 195 9.7 12.9 0.00 0.23 0.20 60 1015.0
20260507102903 29 196 9.7 14.5 0.00 0.23 0.20 60 1015.0
20260507102803 29 197 9.7 14.5 0.00 0.23 0.20 60 1014.9
20260507102703 29 200 9.7 16.1 0.00 0.23 0.20 60 1015.0
20260507102624 29 200 9.7 16.1 0.00 0.23 0.20 60 1014.9
20260507102503 29 199 9.7 16.1 0.00 0.23 0.20 60 1015.0
20260507102403 29 203 9.7 16.1 0.00 0.23 0.20 60 1015.1
20260507102306 29 204 9.7 16.1 0.00 0.23 0.20 60 1014.9
20260507102203 29 204 9.7 16.1 0.00 0.23 0.20 60 1015.0
20260507102125 29 202 9.7 16.1 0.00 0.23 0.20 60 1014.9
20260507102003 29 200 9.7 16.1 0.00 0.23 0.20 60 1015.1
20260507101903 29 199 9.7 16.1 0.00 0.23 0.20 60 1014.9
20260507101803 29 200 9.7 16.1 0.00 0.23 0.20 60 1015.0
20260507101703 29 198 8.0 14.5 0.00 0.23 0.20 60 1014.9
20260507101624 29 198 8.0 14.5 0.00 0.23 0.20 60 1015.0
20260507101503 29 203 9.7 14.5 0.00 0.23 0.20 60 1014.8
20260507101403 29 201 9.7 14.5 0.00 0.23 0.20 60 1014.8
20260507101303 29 201 9.7 14.5 0.00 0.23 0.20 60 1014.7
20260507101203 29 201 9.7 14.5 0.00 0.23 0.20 60 1014.8
20260507101103 29 201 9.7 14.5 0.00 0.23 0.20 60 1014.6
20260507101024 29 200 9.7 14.5 0.00 0.23 0.20 60 1014.8
20260507100903 29 200 9.7 14.5 0.00 0.23 0.20 60 1014.7
20260507100804 29 197 9.7 14.5 0.00 0.23 0.20 60 1014.7
20260507100703 29 197 11.3 14.5 0.00 0.23 0.20 60 1014.8
20260507100603 29 198 9.7 12.9 0.00 0.23 0.20 60 1014.7
20260507100504 29 195 9.7 12.9 0.00 0.23 0.20 60 1015.0
20260507100403 29 197 9.7 12.9 0.00 0.23 0.20 60 1014.8
20260507100303 29 196 9.7 12.9 0.00 0.23 0.20 60 1014.9
20260507100203 29 198 9.7 12.9 0.00 0.23 0.20 60 1014.7
20260507100103 29 196 9.7 14.5 0.00 0.23 0.20 60 1014.7
20260507100003 29 189 9.7 14.5 0.00 0.23 0.20 60 1014.7
20260507095924 29 192 9.7 14.5 0.00 0.23 0.20 60 1014.6
20260507095803 29 198 9.7 14.5 0.00 0.23 0.20 60 1014.7
20260507095703 29 197 9.7 14.5 0.00 0.23 0.20 60 1014.7
20260507095603 29 200 9.7 14.5 0.00 0.23 0.20 60 1014.7
20260507095503 29 202 9.7 14.5 0.00 0.23 0.20 60 1014.6
20260507095424 29 202 9.7 14.5 0.00 0.23 0.20 60 1014.5
20260507095305 29 199 9.7 14.5 0.00 0.23 0.20 60 1014.6
20260507095203 29 201 9.7 14.5 0.00 0.23 0.20 60 1014.7
20260507095103 29 205 8.0 14.5 0.00 0.23 0.20 60 1014.6
20260507095003 29 208 8.0 14.5 0.00 0.23 0.20 60 1014.6
20260507094904 29 204 8.0 14.5 0.00 0.23 0.20 60 1014.6
20260507094803 29 195 8.0 12.9 0.00 0.23 0.20 60 1014.7
20260507094724 29 185 8.0 14.5 0.00 0.23 0.20 60 1014.5
20260507094603 29 160 8.0 14.5 0.00 0.23 0.20 60 1014.7
20260507094503 29 149 9.7 14.5 0.00 0.23 0.20 60 1014.7
20260507094403 29 137 9.7 17.7 0.00 0.23 0.20 60 1014.7
20260507094303 29 135 11.3 17.7 0.00 0.23 0.20 60 1014.7
20260507094203 29 133 11.3 17.7 0.00 0.23 0.20 60 1014.7
20260507094103 29 132 11.3 17.7 0.00 0.23 0.20 60 1014.6
20260507094003 29 127 11.3 17.7 0.00 0.23 0.20 60 1014.7
20260507093903 29 125 11.3 17.7 0.00 0.23 0.20 60 1014.6
20260507093803 29 124 11.3 17.7 0.00 0.23 0.20 60 1014.8
20260507093703 29 127 11.3 17.7 0.00 0.23 0.20 60 1014.6
20260507093603 29 133 9.7 17.7 0.00 0.23 0.20 60 1014.6
20260507093503 29 145 9.7 17.7 0.00 0.23 0.20 60 1014.7
20260507093403 29 153 9.7 16.1 0.00 0.23 0.20 60 1014.6
20260507093303 29 157 9.7 16.1 0.00 0.23 0.20 60 1014.8
20260507093204 29 157 9.7 12.9 0.00 0.23 0.20 60 1014.5
20260507093103 29 160 9.7 14.5 0.00 0.23 0.20 60 1014.5
20260507093024 29 163 9.7 14.5 0.00 0.23 0.20 60 1014.8
20260507092903 29 173 9.7 14.5 0.00 0.23 0.20 60 1014.8
20260507092824 29 173 9.7 14.5 0.00 0.23 0.20 60 1014.8
20260507092703 29 167 9.7 14.5 0.00 0.23 0.20 60 1014.6
20260507092603 29 167 9.7 14.5 0.00 0.23 0.20 60 1014.9
20260507092503 29 165 9.7 14.5 0.00 0.23 0.20 60 1014.7
20260507092403 29 164 9.7 14.5 0.00 0.23 0.20 60 1014.6
20260507092307 29 166 9.7 14.5 0.00 0.23 0.20 60 1014.8
20260507092203 29 166 9.7 14.5 0.00 0.23 0.20 60 1014.6
20260507092103 29 167 9.7 14.5 0.00 0.23 0.20 60 1014.6
20260507092003 29 169 8.0 12.9 0.00 0.23 0.20 60 1014.7
20260507091903 29 169 9.7 12.9 0.00 0.23 0.20 60 1014.7
20260507091803 29 166 9.7 12.9 0.00 0.23 0.20 60 1014.7
20260507091703 29 169 9.7 12.9 0.00 0.23 0.20 60 1014.8
20260507091604 29 168 9.7 12.9 0.00 0.23 0.20 60 1014.8
20260507091503 29 166 9.7 12.9 0.00 0.23 0.20 60 1014.9
20260507091403 29 170 9.7 12.9 0.00 0.23 0.20 60 1014.7
20260507091324 29 164 9.7 16.1 0.00 0.23 0.20 60 1014.9
20260507091203 29 164 9.7 16.1 0.00 0.23 0.20 60 1014.7
20260507091103 29 166 9.7 16.1 0.00 0.23 0.20 60 1014.8
20260507091024 29 165 9.7 16.1 0.00 0.23 0.20 60 1014.7
20260507090903 29 165 9.7 16.1 0.00 0.23 0.20 60 1014.8
20260507090803 29 166 9.7 16.1 0.00 0.23 0.20 60 1014.9
20260507090703 29 162 9.7 16.1 0.00 0.23 0.20 60 1014.9
20260507090604 29 166 11.3 16.1 0.00 0.23 0.20 60 1014.8
20260507090503 29 169 11.3 16.1 0.00 0.23 0.20 60 1014.9
20260507090403 29 171 11.3 16.1 0.00 0.23 0.20 60 1015.0
20260507090303 29 176 9.7 12.9 0.00 0.23 0.20 60 1015.1
20260507090203 29 178 9.7 14.5 0.00 0.23 0.20 60 1014.8
20260507090103 29 179 9.7 14.5 0.00 0.23 0.20 60 1014.9
20260507090025 29 181 9.7 14.5 0.00 0.23 0.20 60 1014.9
20260507085924 29 186 8.0 14.5 0.00 0.23 0.20 60 1014.8
20260507085804 29 189 8.0 14.5 0.00 0.23 0.20 60 1015.0
20260507085703 29 197 8.0 14.5 0.00 0.23 0.20 60 1015.0
20260507085604 29 199 8.0 14.5 0.00 0.23 0.20 60 1014.9
20260507085503 29 191 8.0 14.5 0.00 0.23 0.20 60 1015.1
20260507085403 29 195 8.0 14.5 0.00 0.23 0.20 60 1015.0
20260507085306 29 193 9.7 14.5 0.00 0.23 0.20 60 1015.0
20260507085203 29 193 8.0 14.5 0.00 0.23 0.20 60 1015.1
20260507085103 29 189 9.7 14.5 0.00 0.23 0.20 60 1015.1
20260507085004 29 186 9.7 14.5 0.00 0.23 0.20 60 1015.0
20260507084903 29 184 9.7 14.5 0.00 0.23 0.20 60 1015.1
20260507084805 29 183 11.3 14.5 0.00 0.23 0.20 60 1015.1
20260507084703 29 182 11.3 14.5 0.00 0.23 0.20 60 1015.3
20260507084624 29 185 9.7 14.5 0.00 0.23 0.20 60 1015.2
20260507084503 29 190 9.7 14.5 0.00 0.23 0.20 60 1015.3
20260507084403 29 188 9.7 14.5 0.00 0.23 0.20 60 1015.3
20260507084303 29 186 9.7 14.5 0.00 0.23 0.20 60 1015.2
20260507084203 29 188 9.7 14.5 0.00 0.23 0.20 60 1015.1
20260507084104 29 193 8.0 14.5 0.00 0.23 0.20 60 1015.3
20260507084003 29 198 8.0 14.5 0.00 0.23 0.20 60 1015.4
20260507083903 29 199 8.0 14.5 0.00 0.23 0.20 60 1015.5
20260507083803 29 203 8.0 14.5 0.00 0.23 0.20 60 1015.5
20260507083703 29 202 6.4 12.9 0.00 0.23 0.20 60 1015.4
20260507083603 29 198 6.4 12.9 0.00 0.23 0.20 60 1015.4
20260507083503 29 195 6.4 12.9 0.00 0.23 0.20 60 1015.3
20260507083403 29 187 6.4 12.9 0.00 0.23 0.20 60 1015.3
20260507083324 29 183 6.4 12.9 0.00 0.23 0.20 60 1015.4
20260507083203 29 176 6.4 12.9 0.00 0.23 0.20 60 1015.4
20260507083126 29 177 6.4 12.9 0.00 0.23 0.20 60 1015.6
20260507083004 29 164 6.4 12.9 0.00 0.23 0.20 60 1015.5
20260507082903 29 160 6.4 12.9 0.00 0.23 0.20 60 1015.6
20260507082803 29 155 6.4 12.9 0.00 0.23 0.20 60 1015.5
20260507082703 29 153 6.4 11.3 0.00 0.23 0.20 60 1015.8
20260507082604 29 149 6.4 11.3 0.00 0.23 0.20 60 1015.3
20260507082503 29 146 6.4 11.3 0.00 0.23 0.20 60 1015.6
20260507082403 29 149 6.4 11.3 0.00 0.23 0.20 60 1015.4
20260507082306 29 147 6.4 11.3 0.00 0.23 0.20 60 1015.6
20260507082203 29 153 6.4 11.3 0.00 0.23 0.20 60 1015.5
20260507082103 29 154 6.4 11.3 0.00 0.23 0.20 60 1015.6
20260507082004 29 160 6.4 11.3 0.00 0.23 0.20 60 1015.5
20260507081924 29 161 4.8 11.3 0.00 0.23 0.20 60 1015.8
20260507081804 29 154 4.8 9.7 0.00 0.23 0.20 60 1015.8
20260507081703 29 144 4.8 6.4 0.00 0.23 0.20 60 1015.9
20260507081603 29 148 4.8 6.4 0.00 0.23 0.20 60 1015.8
20260507081503 29 162 4.8 6.4 0.00 0.23 0.20 60 1015.9
20260507081404 29 176 3.2 6.4 0.00 0.23 0.20 60 1015.8
20260507081304 29 188 3.2 6.4 0.00 0.23 0.20 60 1015.9
20260507081203 29 185 3.2 6.4 0.00 0.23 0.20 60 1016.0
20260507081104 29 180 3.2 6.4 0.00 0.23 0.20 60 1015.9
20260507081003 29 179 3.2 6.4 0.00 0.23 0.20 60 1015.9
20260507080903 29 185 3.2 6.4 0.00 0.23 0.20 60 1016.1
20260507080803 29 185 4.8 6.4 0.00 0.23 0.20 60 1016.0
20260507080703 29 192 4.8 6.4 0.00 0.23 0.20 60 1016.1
20260507080624 29 196 4.8 6.4 0.00 0.23 0.20 60 1016.1
20260507080524 29 195 4.8 6.4 0.00 0.23 0.20 60 1016.0
20260507080403 29 195 4.8 6.4 0.00 0.23 0.20 60 1016.3
20260507080303 29 194 4.8 9.7 0.00 0.23 0.20 60 1016.2
20260507080204 29 192 6.4 9.7 0.00 0.23 0.20 60 1016.3
20260507080103 29 191 4.8 9.7 0.00 0.23 0.20 60 1016.4
20260507080004 29 189 6.4 9.7 0.00 0.23 0.20 60 1016.3
20260507075903 29 186 6.4 9.7 0.00 0.23 0.20 60 1016.4
20260507075803 29 186 6.4 9.7 0.00 0.23 0.20 60 1016.5
20260507075703 29 180 6.4 9.7 0.00 0.23 0.20 60 1016.4
20260507075604 29 174 6.4 11.3 0.00 0.23 0.20 60 1016.3
20260507075504 29 167 8.0 12.9 0.00 0.23 0.20 60 1016.4
20260507075403 29 164 8.0 12.9 0.00 0.23 0.20 60 1016.5
20260507075306 29 165 8.0 12.9 0.00 0.23 0.20 60 1016.6
20260507075203 29 164 8.0 12.9 0.00 0.23 0.20 60 1016.5
20260507075103 29 162 6.4 12.9 0.00 0.23 0.20 60 1016.4
20260507075004 29 163 8.0 12.9 0.00 0.23 0.20 60 1016.6
20260507074903 29 165 8.0 12.9 0.00 0.23 0.20 60 1016.5
20260507074803 29 168 8.0 12.9 0.03 0.23 0.20 60 1016.5
20260507074703 29 168 8.0 12.9 0.03 0.23 0.20 60 1016.4
20260507074604 29 171 6.4 12.9 0.03 0.23 0.20 60 1016.5
20260507074503 29 175 6.4 9.7 0.03 0.23 0.20 60 1016.4
20260507074403 29 179 6.4 9.7 0.03 0.23 0.20 60 1016.6
20260507074303 29 183 6.4 9.7 0.03 0.23 0.20 60 1016.5
20260507074203 29 179 6.4 9.7 0.03 0.23 0.20 60 1016.6
20260507074125 29 178 8.0 12.9 0.05 0.23 0.20 60 1016.6
20260507074004 29 175 8.0 12.9 0.08 0.23 0.20 60 1016.7
20260507073904 29 176 8.0 12.9 0.08 0.23 0.20 60 1016.7
20260507073804 29 171 6.4 12.9 0.08 0.23 0.20 60 1016.6
20260507073703 29 172 6.4 12.9 0.10 0.23 0.20 60 1016.9
20260507073603 29 175 6.4 12.9 0.10 0.23 0.20 60 1016.6
20260507073503 29 176 6.4 12.9 0.10 0.23 0.20 60 1016.7
20260507073403 29 176 6.4 12.9 0.10 0.23 0.20 60 1016.6
20260507073303 29 179 6.4 12.9 0.10 0.23 0.20 60 1016.7
20260507073203 29 181 6.4 12.9 0.10 0.23 0.20 60 1016.7
20260507073124 29 186 6.4 12.9 0.10 0.23 0.20 60 1016.7
20260507073004 29 190 4.8 9.7 0.10 0.23 0.20 60 1016.7
20260507072924 29 189 4.8 9.7 0.10 0.23 0.20 60 1016.7
20260507072803 29 185 6.4 9.7 0.10 0.23 0.20 60 1016.9
20260507072703 29 181 6.4 11.3 0.10 0.23 0.20 60 1016.9
20260507072603 29 178 6.4 11.3 0.10 0.23 0.20 60 1016.7
20260507072503 29 175 6.4 11.3 0.10 0.23 0.20 60 1016.7
20260507072403 29 173 8.0 11.3 0.10 0.23 0.20 60 1017.0
20260507072306 29 169 8.0 11.3 0.10 0.23 0.20 60 1016.7
20260507072224 29 167 8.0 11.3 0.10 0.23 0.20 60 1016.5
20260507072105 29 163 8.0 11.3 0.10 0.23 0.20 60 1016.9
20260507072003 29 162 8.0 11.3 0.10 0.23 0.20 60 1016.6
20260507071903 29 162 8.0 11.3 0.10 0.23 0.20 60 1016.9
20260507071803 29 166 8.0 11.3 0.10 0.23 0.20 60 1016.6
20260507071703 29 169 8.0 11.3 0.10 0.23 0.20 60 1016.7
20260507071604 29 172 8.0 11.3 0.10 0.23 0.20 60 1016.7
20260507071504 29 177 6.4 11.3 0.10 0.23 0.20 60 1016.6
20260507071403 29 182 6.4 11.3 0.10 0.23 0.20 60 1016.9
20260507071324 29 183 6.4 11.3 0.10 0.23 0.20 60 1016.7
20260507071203 29 190 6.4 11.3 0.10 0.23 0.20 60 1016.7
20260507071124 29 195 4.8 11.3 0.10 0.23 0.20 60 1016.7
20260507071003 29 216 4.8 9.7 0.10 0.23 0.20 60 1016.9
20260507070904 29 230 4.8 9.7 0.10 0.23 0.20 60 1016.6
20260507070803 29 234 4.8 9.7 0.10 0.23 0.20 60 1016.9
20260507070724 29 235 4.8 9.7 0.10 0.23 0.20 60 1017.1
20260507070603 29 243 4.8 9.7 0.10 0.23 0.20 60 1016.7
20260507070504 29 248 6.4 9.7 0.10 0.23 0.20 60 1016.9
20260507070403 29 250 6.4 9.7 0.10 0.23 0.20 60 1016.9
20260507070303 29 253 6.4 9.7 0.10 0.23 0.20 60 1016.9
20260507070203 29 252 6.4 9.7 0.10 0.23 0.20 60 1016.9
20260507070124 29 251 6.4 11.3 0.10 0.23 0.20 60 1016.9
20260507070007 29 249 6.4 11.3 0.10 0.23 0.20 60 1016.7
20260507065903 29 249 6.4 11.3 0.10 0.23 0.20 60 1016.7
20260507065803 29 249 6.4 11.3 0.10 0.23 0.20 60 1017.0
20260507065724 29 251 6.4 11.3 0.10 0.23 0.20 60 1016.7
20260507065604 29 252 6.4 12.9 0.10 0.23 0.20 60 1016.9
20260507065503 29 249 8.0 12.9 0.10 0.23 0.20 60 1016.6
20260507065424 29 250 8.0 12.9 0.10 0.23 0.20 60 1016.7
20260507065306 29 254 8.0 12.9 0.10 0.23 0.20 60 1016.9
20260507065203 29 257 8.0 16.1 0.10 0.23 0.20 60 1016.6
20260507065103 29 258 8.0 16.1 0.10 0.23 0.20 60 1016.9
20260507065003 29 263 9.7 27.4 0.10 0.23 0.20 60 1016.9
20260507064905 29 264 11.3 27.4 0.10 0.23 0.20 60 1016.9
20260507064803 29 265 12.9 27.4 0.08 0.20 0.18 60 1016.7
20260507064703 29 263 14.5 27.4 0.08 0.20 0.18 60 1016.7
20260507064603 29 264 14.5 27.4 0.08 0.20 0.18 60 1016.7
20260507064504 29 268 16.1 27.4 0.08 0.20 0.18 60 1016.9
20260507064403 29 268 17.7 27.4 0.08 0.20 0.18 60 1016.6
20260507064303 29 268 19.3 27.4 0.08 0.20 0.18 60 1016.9
20260507064204 29 267 19.3 27.4 0.08 0.20 0.18 60 1016.6
20260507064104 29 268 20.9 27.4 0.05 0.18 0.15 60 1016.7
20260507064003 29 266 20.9 27.4 0.03 0.15 0.15 60 1017.0
20260507063903 29 267 20.9 25.7 0.03 0.15 0.13 60 1016.9
20260507063803 29 265 20.9 25.7 0.03 0.15 0.13 60 1016.9
20260507063703 29 266 19.3 24.1 0.00 0.13 0.10 60 1016.6
20260507063603 29 264 19.3 24.1 0.00 0.13 0.10 60 1016.9
20260507063524 29 263 19.3 24.1 0.00 0.13 0.10 60 1016.7
20260507063403 29 262 19.3 24.1 0.00 0.13 0.10 60 1016.7
20260507063304 29 264 19.3 25.7 0.00 0.13 0.10 60 1016.7
20260507063203 29 263 19.3 25.7 0.00 0.13 0.10 60 1016.7
20260507063103 29 262 19.3 25.7 0.00 0.13 0.10 60 1016.7
20260507063003 29 262 19.3 25.7 0.00 0.13 0.10 60 1016.7
20260507062924 29 263 19.3 25.7 0.00 0.13 0.10 60 1016.7
20260507062803 29 262 19.3 27.4 0.00 0.13 0.10 60 1016.6
20260507062704 29 260 19.3 27.4 0.00 0.13 0.10 60 1016.6
20260507062603 29 259 19.3 27.4 0.00 0.13 0.10 60 1016.7
20260507062503 29 259 19.3 27.4 0.00 0.13 0.10 60 1016.9
20260507062403 29 257 17.7 27.4 0.00 0.13 0.10 60 1016.6
20260507062306 29 255 16.1 27.4 0.00 0.13 0.10 60 1016.9
20260507062203 29 253 14.5 27.4 0.00 0.13 0.10 60 1017.0
20260507062103 29 253 14.5 27.4 0.00 0.13 0.10 60 1016.7
20260507062003 29 252 12.9 27.4 0.00 0.13 0.10 60 1016.7
20260507061903 29 247 12.9 27.4 0.00 0.13 0.10 60 1016.9
20260507061803 29 243 11.3 20.9 0.00 0.13 0.10 60 1017.0
20260507061703 29 243 9.7 16.1 0.00 0.13 0.10 60 1016.9
20260507061603 29 242 8.0 16.1 0.00 0.13 0.10 60 1017.0
20260507061503 29 238 8.0 16.1 0.00 0.13 0.10 60 1017.1
20260507061403 29 237 8.0 11.3 0.00 0.13 0.10 60 1017.1
20260507061303 29 238 8.0 11.3 0.00 0.13 0.10 60 1017.1
20260507061205 29 239 8.0 12.9 0.00 0.13 0.10 60 1017.0
20260507061103 29 240 8.0 12.9 0.00 0.13 0.10 60 1017.1
20260507061024 29 243 8.0 12.9 0.00 0.13 0.10 60 1017.1
20260507060903 29 248 8.0 12.9 0.00 0.13 0.10 60 1017.0
20260507060803 29 253 8.0 12.9 0.00 0.13 0.10 60 1017.2
20260507060724 29 256 8.0 12.9 0.00 0.13 0.10 60 1017.0
20260507060603 29 260 8.0 12.9 0.00 0.13 0.10 60 1017.1
20260507060503 29 262 8.0 12.9 0.00 0.13 0.10 60 1017.2
20260507060403 29 267 8.0 12.9 0.00 0.13 0.10 60 1017.2
20260507060303 29 274 6.4 12.9 0.00 0.13 0.10 60 1017.0
20260507060203 29 276 6.4 12.9 0.00 0.13 0.10 60 1017.0
20260507060103 29 260 6.4 12.9 0.00 0.13 0.10 60 1017.0
20260507060003 29 248 6.4 12.9 0.00 0.13 0.10 60 1017.1
20260507055903 29 239 4.8 11.3 0.00 0.13 0.10 60 1017.2
20260507055803 29 222 4.8 9.7 0.00 0.13 0.10 60 1017.0
20260507055703 29 196 4.8 9.7 0.00 0.13 0.10 60 1017.1
20260507055605 29 184 4.8 9.7 0.00 0.13 0.10 60 1017.0
20260507055503 29 181 6.4 9.7 0.00 0.13 0.10 60 1017.0
20260507055403 29 183 6.4 11.3 0.00 0.13 0.10 60 1017.1
20260507055306 29 187 6.4 11.3 0.00 0.13 0.10 60 1017.1
20260507055203 29 190 6.4 11.3 0.00 0.13 0.10 60 1017.1
20260507055103 29 189 8.0 12.9 0.00 0.13 0.10 60 1017.1
20260507055003 29 183 8.0 14.5 0.00 0.13 0.10 60 1017.3
20260507054903 29 178 8.0 14.5 0.00 0.13 0.10 60 1017.2
20260507054803 29 172 8.0 14.5 0.00 0.13 0.10 60 1017.3
20260507054724 29 176 8.0 14.5 0.00 0.13 0.10 60 1017.3
20260507054603 29 172 8.0 14.5 0.00 0.13 0.10 60 1017.2
20260507054503 29 169 8.0 14.5 0.00 0.13 0.10 60 1017.2
20260507054424 29 168 8.0 14.5 0.00 0.13 0.10 60 1017.2
20260507054303 29 160 9.7 14.5 0.00 0.13 0.10 60 1017.4
20260507054224 29 159 9.7 14.5 0.00 0.13 0.10 60 1017.3
20260507054103 29 163 11.3 16.1 0.00 0.13 0.10 60 1017.3
20260507054003 29 163 11.3 16.1 0.00 0.13 0.10 60 1017.3
20260507053904 29 162 11.3 17.7 0.00 0.13 0.10 60 1017.4
20260507053803 29 160 11.3 17.7 0.00 0.13 0.10 60 1017.3
20260507053705 29 159 11.3 17.7 0.00 0.13 0.10 60 1017.3
20260507053603 29 163 11.3 17.7 0.00 0.13 0.10 60 1017.5
20260507053503 29 168 11.3 17.7 0.00 0.13 0.10 60 1017.5
20260507053403 29 169 9.7 17.7 0.00 0.13 0.10 60 1017.5
20260507053303 29 179 9.7 17.7 0.00 0.13 0.10 60 1017.5
20260507053204 29 186 9.7 17.7 0.00 0.13 0.10 60 1017.3
20260507053124 29 192 9.7 17.7 0.00 0.13 0.10 60 1017.4
20260507053004 29 201 8.0 17.7 0.00 0.13 0.10 60 1017.5
20260507052903 29 213 8.0 14.5 0.00 0.13 0.10 60 1017.5
20260507052803 29 221 8.0 14.5 0.00 0.13 0.10 60 1017.5
20260507052724 29 220 8.0 14.5 0.00 0.13 0.10 60 1017.4
20260507052603 29 229 8.0 14.5 0.00 0.13 0.10 60 1017.4
20260507052503 29 227 8.0 14.5 0.00 0.13 0.10 60 1017.5
20260507052403 29 224 8.0 14.5 0.00 0.13 0.10 60 1017.7
20260507052325 29 223 9.7 14.5 0.00 0.13 0.10 60 1017.7
20260507052203 29 216 8.0 14.5 0.00 0.13 0.10 60 1017.7
20260507052103 29 216 8.0 14.5 0.00 0.13 0.10 60 1017.7
20260507052003 29 220 8.0 14.5 0.00 0.13 0.10 60 1017.6
20260507051903 29 224 8.0 14.5 0.00 0.13 0.10 60 1017.7
20260507051805 29 226 8.0 14.5 0.00 0.13 0.10 60 1017.8
20260507051703 29 238 8.0 12.9 0.00 0.13 0.10 60 1017.9
20260507051603 29 236 8.0 12.9 0.00 0.13 0.10 60 1018.0
20260507051503 29 243 8.0 12.9 0.00 0.13 0.10 60 1017.8
20260507051403 29 248 9.7 14.5 0.00 0.13 0.10 60 1017.7
20260507051303 29 248 9.7 14.5 0.00 0.13 0.10 60 1017.9
20260507051203 29 252 9.7 14.5 0.00 0.13 0.10 60 1017.9
20260507051103 29 259 11.3 16.1 0.00 0.13 0.10 60 1017.9
20260507051003 29 259 11.3 16.1 0.00 0.13 0.10 60 1017.9
20260507050903 29 260 11.3 16.1 0.00 0.13 0.10 60 1017.8
20260507050803 29 259 11.3 16.1 0.00 0.13 0.10 60 1017.8
20260507050704 29 259 11.3 16.1 0.00 0.13 0.10 60 1017.9
20260507050603 29 261 11.3 16.1 0.00 0.13 0.10 60 1018.0
20260507050503 29 264 11.3 16.1 0.00 0.13 0.10 60 1017.9
20260507050403 29 266 11.3 16.1 0.00 0.13 0.10 60 1018.0
20260507050303 29 269 11.3 16.1 0.00 0.13 0.10 60 1017.9
20260507050224 29 270 11.3 16.1 0.00 0.13 0.10 60 1018.0
20260507050124 29 267 9.7 16.1 0.00 0.13 0.10 60 1017.9
20260507050003 29 269 9.7 14.5 0.00 0.13 0.10 60 1018.0
20260507045903 29 271 8.0 14.5 0.00 0.13 0.10 60 1017.8
20260507045805 29 276 8.0 14.5 0.00 0.13 0.10 60 1018.0
20260507045703 29 279 8.0 16.1 0.00 0.13 0.10 60 1018.0
20260507045603 29 277 8.0 16.1 0.00 0.13 0.10 60 1017.9
20260507045503 29 274 9.7 16.1 0.00 0.13 0.10 60 1018.0
20260507045403 29 271 8.0 16.1 0.00 0.13 0.10 60 1017.9
20260507045324 29 271 8.0 16.1 0.00 0.13 0.10 60 1018.0
20260507045203 29 269 8.0 16.1 0.00 0.13 0.10 60 1018.0
20260507045103 29 268 8.0 16.1 0.00 0.13 0.10 60 1017.9
20260507045024 29 265 8.0 16.1 0.00 0.13 0.10 60 1018.0
20260507044924 29 263 8.0 16.1 0.00 0.13 0.10 60 1018.0
20260507044803 29 256 9.7 16.1 0.00 0.13 0.10 60 1018.0
20260507044724 29 255 9.7 16.1 0.00 0.13 0.10 60 1017.9
20260507044603 29 243 9.7 16.1 0.00 0.13 0.10 60 1018.0
20260507044503 29 243 9.7 16.1 0.00 0.13 0.10 60 1018.0
20260507044403 29 240 9.7 16.1 0.00 0.13 0.10 60 1018.0
20260507044304 29 241 8.0 16.1 0.00 0.13 0.10 60 1018.0
20260507044224 29 239 8.0 16.1 0.00 0.13 0.10 60 1018.1
20260507044104 29 243 9.7 16.1 0.00 0.13 0.10 60 1018.1
20260507044004 29 242 8.0 16.1 0.00 0.13 0.10 60 1018.0
20260507043924 29 242 8.0 16.1 0.00 0.13 0.10 60 1018.0
20260507043803 29 240 8.0 16.1 0.00 0.13 0.10 60 1018.0
20260507043724 29 234 8.0 16.1 0.00 0.13 0.10 60 1017.8
20260507043603 29 238 8.0 14.5 0.00 0.13 0.10 60 1017.8
20260507043524 29 234 8.0 14.5 0.00 0.13 0.10 60 1018.0
20260507043424 29 234 9.7 14.5 0.00 0.13 0.10 60 1018.0
20260507043303 29 234 9.7 14.5 0.00 0.13 0.10 60 1018.0
20260507043203 29 234 9.7 14.5 0.00 0.13 0.10 60 1018.1
20260507043103 29 233 9.7 14.5 0.00 0.13 0.10 60 1017.9
20260507043004 29 235 9.7 12.9 0.00 0.13 0.10 60 1018.1
20260507042924 29 235 9.7 12.9 0.00 0.13 0.10 60 1018.0
20260507042803 29 237 9.7 14.5 0.00 0.13 0.10 60 1017.9
20260507042703 29 241 9.7 14.5 0.00 0.13 0.10 60 1018.1
20260507042603 29 246 9.7 14.5 0.00 0.13 0.10 60 1018.1
20260507042503 29 252 9.7 14.5 0.00 0.13 0.10 60 1018.1
20260507042403 29 253 9.7 14.5 0.00 0.13 0.10 60 1018.1
20260507042306 29 254 9.7 14.5 0.00 0.13 0.10 60 1018.1
20260507042203 29 253 9.7 14.5 0.00 0.13 0.10 60 1018.1
20260507042103 29 253 9.7 14.5 0.00 0.13 0.10 60 1018.0
20260507042003 29 254 9.7 14.5 0.00 0.13 0.10 60 1018.3
20260507041903 29 254 9.7 14.5 0.00 0.13 0.10 60 1018.0
20260507041803 29 255 9.7 14.5 0.00 0.13 0.10 60 1018.0
20260507041724 29 255 9.7 12.9 0.00 0.13 0.10 60 1018.0
20260507041603 29 255 9.7 14.5 0.00 0.13 0.10 60 1018.1
20260507041524 29 257 11.3 16.1 0.00 0.13 0.10 60 1018.3
20260507041424 29 255 11.3 17.7 0.00 0.13 0.10 60 1018.1
20260507041303 29 258 11.3 17.7 0.00 0.13 0.10 60 1018.1
20260507041203 29 259 11.3 17.7 0.00 0.13 0.10 60 1018.0
20260507041103 29 259 11.3 17.7 0.00 0.13 0.10 60 1018.0
20260507041025 29 259 11.3 17.7 0.00 0.13 0.10 60 1018.1
20260507040903 29 258 11.3 17.7 0.00 0.13 0.10 60 1018.0
20260507040824 29 257 11.3 17.7 0.00 0.13 0.10 60 1018.0
20260507040704 29 253 11.3 17.7 0.00 0.13 0.10 60 1018.0
20260507040603 29 250 11.3 17.7 0.00 0.13 0.10 60 1018.0
20260507040503 29 244 9.7 17.7 0.00 0.13 0.10 60 1018.1
20260507040404 29 237 9.7 17.7 0.00 0.13 0.10 60 1018.0
20260507040303 29 224 9.7 17.7 0.00 0.13 0.10 60 1018.0
20260507040203 29 211 9.7 17.7 0.00 0.13 0.10 60 1017.9
20260507040103 29 195 11.3 17.7 0.00 0.13 0.10 60 1018.0
20260507040003 29 186 11.3 17.7 0.00 0.13 0.10 60 1017.9
20260507035924 29 182 11.3 17.7 0.00 0.13 0.10 60 1018.1
20260507035803 29 165 9.7 16.1 0.00 0.13 0.10 60 1018.1
20260507035703 29 166 9.7 16.1 0.00 0.13 0.10 60 1017.9
20260507035624 29 164 11.3 16.1 0.00 0.13 0.10 60 1018.0
20260507035503 29 163 11.3 17.7 0.00 0.13 0.10 60 1017.8
20260507035403 29 160 12.9 17.7 0.00 0.13 0.10 60 1017.7
20260507035306 29 162 12.9 17.7 0.00 0.13 0.10 60 1017.9
20260507035203 29 164 12.9 17.7 0.00 0.13 0.10 60 1018.0
20260507035103 29 166 12.9 17.7 0.00 0.13 0.10 60 1017.8
20260507035003 29 171 12.9 17.7 0.00 0.13 0.10 60 1017.9
20260507034903 29 167 12.9 17.7 0.00 0.13 0.10 60 1018.0
20260507034803 29 168 14.5 17.7 0.00 0.13 0.10 60 1018.0
20260507034704 29 167 14.5 17.7 0.00 0.13 0.10 60 1017.9
20260507034603 29 165 14.5 17.7 0.00 0.13 0.10 60 1018.0
20260507034504 29 166 14.5 17.7 0.00 0.13 0.10 60 1018.1
20260507034404 29 166 14.5 20.9 0.00 0.13 0.10 60 1018.1
20260507034303 29 166 14.5 20.9 0.00 0.13 0.10 60 1017.8
20260507034203 29 165 14.5 20.9 0.00 0.13 0.10 60 1018.1
20260507034103 29 168 14.5 20.9 0.00 0.13 0.10 60 1017.9
20260507034004 29 171 14.5 20.9 0.00 0.13 0.10 60 1018.1
20260507033903 29 174 14.5 20.9 0.00 0.13 0.10 60 1018.0
20260507033803 29 177 12.9 20.9 0.00 0.13 0.10 60 1018.0
20260507033703 29 178 12.9 20.9 0.00 0.13 0.10 60 1018.1
20260507033603 29 177 12.9 20.9 0.00 0.13 0.10 60 1018.0
20260507033503 29 179 14.5 20.9 0.00 0.13 0.10 60 1018.1
20260507033403 29 179 12.9 17.7 0.00 0.13 0.10 60 1018.1
20260507033324 29 179 12.9 17.7 0.00 0.13 0.10 60 1018.3
20260507033203 29 178 14.5 17.7 0.00 0.13 0.10 60 1018.1
20260507033103 29 177 14.5 17.7 0.00 0.13 0.10 60 1018.0
20260507033003 29 173 14.5 17.7 0.00 0.13 0.10 60 1018.0
20260507032903 29 171 14.5 17.7 0.00 0.13 0.10 60 1018.3
20260507032805 29 169 14.5 17.7 0.00 0.13 0.10 60 1018.0
20260507032724 29 167 14.5 17.7 0.00 0.13 0.10 60 1018.1
20260507032603 29 165 14.5 17.7 0.00 0.13 0.10 60 1018.1
20260507032504 29 163 14.5 17.7 0.00 0.13 0.10 60 1018.4
20260507032403 29 160 12.9 17.7 0.00 0.13 0.10 60 1018.1
20260507032305 29 156 12.9 17.7 0.00 0.13 0.10 60 1018.0
20260507032203 29 155 12.9 17.7 0.00 0.13 0.10 60 1018.0
20260507032103 29 155 11.3 17.7 0.00 0.13 0.10 60 1018.1
20260507032003 29 154 11.3 17.7 0.00 0.13 0.10 60 1018.0
20260507031903 29 151 11.3 17.7 0.00 0.13 0.10 60 1018.0
20260507031803 29 153 11.3 17.7 0.00 0.13 0.10 60 1018.0
20260507031703 29 153 11.3 17.7 0.00 0.13 0.10 60 1018.1
20260507031624 29 154 11.3 17.7 0.00 0.13 0.10 60 1017.9
20260507031503 29 148 9.7 14.5 0.00 0.13 0.10 60 1018.0
20260507031403 29 154 9.7 14.5 0.00 0.13 0.10 60 1018.0
20260507031324 29 153 9.7 14.5 0.00 0.13 0.10 60 1018.1
20260507031203 29 152 9.7 14.5 0.00 0.13 0.10 60 1018.3
20260507031124 29 155 9.7 14.5 0.00 0.13 0.10 60 1018.0
20260507031004 29 156 9.7 14.5 0.00 0.13 0.10 60 1018.3
20260507030925 29 160 9.7 14.5 0.00 0.13 0.10 60 1017.9
20260507030803 29 163 9.7 14.5 0.00 0.13 0.10 60 1018.0
20260507030703 29 167 9.7 12.9 0.00 0.13 0.10 60 1018.1
20260507030603 29 171 9.7 12.9 0.00 0.13 0.10 60 1018.1
20260507030503 29 178 9.7 12.9 0.00 0.13 0.10 60 1018.3
20260507030403 29 178 9.7 12.9 0.00 0.13 0.10 60 1018.3
20260507030303 29 182 9.7 12.9 0.00 0.13 0.10 60 1018.3
20260507030203 29 189 9.7 12.9 0.00 0.13 0.10 60 1018.4
20260507030024 29 190 8.0 12.9 0.00 0.13 0.10 60 1018.1
20260507025903 29 188 9.7 14.5 0.00 0.13 0.10 60 1018.4
20260507025803 29 189 9.7 14.5 0.00 0.13 0.10 60 1018.3
20260507025703 29 191 9.7 14.5 0.00 0.13 0.10 60 1018.0
20260507025603 29 187 9.7 14.5 0.00 0.13 0.10 60 1018.5
20260507025504 29 183 9.7 14.5 0.00 0.13 0.10 60 1018.1
20260507025403 29 183 9.7 14.5 0.00 0.13 0.10 60 1018.5
20260507025306 29 180 9.7 16.1 0.00 0.13 0.10 60 1018.4
20260507025203 29 180 11.3 16.1 0.00 0.13 0.10 60 1018.5
20260507025103 29 173 11.3 16.1 0.00 0.13 0.10 60 1018.4
20260507025003 29 172 11.3 16.1 0.00 0.13 0.10 60 1018.3
20260507024903 29 172 11.3 16.1 0.00 0.13 0.10 60 1018.4
20260507024805 29 172 11.3 16.1 0.00 0.13 0.10 60 1018.4
20260507024703 29 170 11.3 16.1 0.00 0.13 0.10 60 1018.4
20260507024604 29 169 12.9 16.1 0.00 0.13 0.10 60 1018.3
20260507024524 29 171 12.9 17.7 0.00 0.13 0.10 60 1018.4
20260507024403 29 174 12.9 17.7 0.00 0.13 0.10 60 1018.3
20260507024304 29 174 12.9 17.7 0.00 0.13 0.10 60 1018.3
20260507024203 29 174 12.9 17.7 0.00 0.13 0.10 60 1018.3
20260507024103 29 176 12.9 17.7 0.00 0.13 0.10 60 1018.4
20260507024004 29 180 12.9 17.7 0.00 0.13 0.10 60 1018.0
20260507023924 29 181 12.9 17.7 0.00 0.13 0.10 60 1018.3
20260507023803 29 182 12.9 17.7 0.00 0.13 0.10 60 1018.1
20260507023703 29 180 12.9 17.7 0.00 0.13 0.10 60 1018.3
20260507023603 29 182 12.9 17.7 0.00 0.13 0.10 60 1018.3
20260507023525 29 179 12.9 17.7 0.00 0.13 0.10 60 1018.3
20260507023403 29 175 12.9 17.7 0.00 0.13 0.10 60 1018.3
20260507023304 29 172 11.3 17.7 0.00 0.13 0.10 60 1018.4
20260507023203 29 171 11.3 17.7 0.00 0.13 0.10 60 1018.4
20260507023103 29 170 11.3 17.7 0.00 0.13 0.10 60 1018.3
20260507023004 29 165 11.3 16.1 0.00 0.13 0.10 60 1018.3
20260507022924 29 163 11.3 16.1 0.00 0.13 0.10 60 1018.1
20260507022805 29 159 11.3 16.1 0.00 0.13 0.10 60 1018.1
20260507022725 29 157 11.3 16.1 0.00 0.13 0.10 60 1018.3
20260507022603 29 158 12.9 16.1 0.00 0.13 0.10 60 1018.0
20260507022503 29 159 12.9 16.1 0.00 0.13 0.10 60 1018.3
20260507022403 29 160 11.3 16.1 0.00 0.13 0.10 60 1018.0
20260507022306 29 158 11.3 16.1 0.00 0.13 0.10 60 1017.9
20260507022203 29 156 11.3 16.1 0.00 0.13 0.10 60 1018.4
20260507022103 29 155 11.3 16.1 0.00 0.13 0.10 60 1018.3
20260507022003 29 149 11.3 16.1 0.00 0.13 0.10 60 1018.1
20260507021903 29 149 11.3 16.1 0.00 0.13 0.10 60 1018.3
20260507021803 29 147 9.7 16.1 0.00 0.13 0.10 60 1018.1
20260507021704 29 149 9.7 16.1 0.00 0.13 0.10 60 1018.0
20260507021603 29 140 9.7 16.1 0.00 0.13 0.10 60 1018.1
20260507021503 29 139 9.7 16.1 0.00 0.13 0.10 60 1018.1
20260507021404 29 133 9.7 16.1 0.00 0.13 0.10 60 1018.0
20260507021303 29 130 9.7 16.1 0.00 0.13 0.10 60 1018.0
20260507021205 29 136 9.7 16.1 0.00 0.13 0.10 60 1018.1
20260507021103 29 137 9.7 16.1 0.00 0.13 0.10 60 1018.1
20260507021025 29 136 9.7 16.1 0.00 0.13 0.10 60 1018.0
20260507020903 29 141 8.0 16.1 0.00 0.13 0.10 60 1018.0
20260507020803 29 140 8.0 16.1 0.00 0.13 0.10 60 1018.0
20260507020703 29 141 9.7 16.1 0.00 0.13 0.10 60 1018.0
20260507020603 29 142 9.7 16.1 0.00 0.13 0.10 60 1018.0
20260507020503 29 135 8.0 16.1 0.00 0.13 0.10 60 1018.0
20260507020403 29 139 8.0 16.1 0.00 0.13 0.10 60 1018.3
20260507020303 29 138 8.0 16.1 0.00 0.13 0.10 60 1018.1
20260507020224 29 140 9.7 17.7 0.00 0.13 0.10 60 1018.1
20260507020103 29 140 9.7 17.7 0.00 0.13 0.10 60 1018.3
20260507020003 29 139 9.7 17.7 0.00 0.13 0.10 60 1018.0
20260507015924 29 138 9.7 17.7 0.00 0.13 0.10 60 1018.4
20260507015803 29 137 11.3 17.7 0.00 0.13 0.10 60 1018.1
20260507015703 29 140 11.3 17.7 0.00 0.13 0.10 60 1018.3
20260507015604 29 138 11.3 17.7 0.00 0.13 0.10 60 1018.4
20260507015504 29 138 11.3 17.7 0.00 0.13 0.10 60 1018.3
20260507015424 29 138 11.3 17.7 0.00 0.13 0.10 60 1018.1
20260507015306 29 141 11.3 17.7 0.00 0.13 0.10 60 1018.3
20260507015203 29 142 9.7 16.1 0.00 0.13 0.10 60 1018.1
20260507015104 29 142 9.7 16.1 0.00 0.13 0.10 60 1018.1
20260507015004 29 146 9.7 16.1 0.00 0.13 0.10 60 1018.0
20260507014903 29 148 9.7 16.1 0.00 0.13 0.10 60 1018.0
20260507014824 29 149 9.7 16.1 0.00 0.13 0.10 60 1018.0
20260507014703 29 151 9.7 14.5 0.00 0.13 0.10 60 1018.0
20260507014603 29 150 11.3 16.1 0.00 0.13 0.10 60 1018.0
20260507014504 29 153 11.3 16.1 0.00 0.13 0.10 60 1018.1
20260507014403 29 154 11.3 16.1 0.00 0.13 0.10 60 1017.8
20260507014303 29 154 11.3 16.1 0.00 0.13 0.10 60 1018.0
20260507014203 29 154 12.9 16.1 0.00 0.13 0.10 60 1018.0
20260507014103 29 154 12.9 16.1 0.00 0.13 0.10 60 1017.9
20260507014004 29 155 12.9 16.1 0.00 0.13 0.10 60 1017.7
20260507013925 29 155 12.9 16.1 0.00 0.13 0.10 60 1017.8
20260507013824 29 154 12.9 16.1 0.00 0.13 0.10 60 1017.8
20260507013703 29 153 11.3 16.1 0.00 0.13 0.10 60 1017.8
20260507013603 29 156 11.3 14.5 0.00 0.13 0.10 60 1017.7
20260507013503 29 157 9.7 14.5 0.00 0.13 0.10 60 1017.7
20260507013403 29 157 9.7 14.5 0.00 0.13 0.10 60 1017.6
20260507013303 29 158 9.7 14.5 0.00 0.13 0.10 60 1017.6
20260507013203 29 158 9.7 14.5 0.00 0.13 0.10 60 1017.7
20260507013105 29 159 9.7 12.9 0.00 0.13 0.10 60 1017.6
20260507013004 29 160 9.7 14.5 0.00 0.13 0.10 60 1017.7
20260507012924 29 159 9.7 14.5 0.00 0.13 0.10 60 1017.8
20260507012803 29 157 9.7 14.5 0.00 0.13 0.10 60 1017.7
20260507012724 29 157 9.7 14.5 0.00 0.13 0.10 60 1017.8
20260507012604 29 159 9.7 14.5 0.00 0.13 0.10 60 1017.6
20260507012504 29 157 9.7 14.5 0.00 0.13 0.10 60 1017.7
20260507012424 29 156 9.7 14.5 0.00 0.13 0.10 60 1017.7
20260507012306 29 156 9.7 14.5 0.00 0.13 0.10 60 1017.5
20260507012203 29 156 9.7 14.5 0.00 0.13 0.10 60 1017.6
20260507012103 29 155 9.7 14.5 0.00 0.13 0.10 60 1017.7
20260507012003 29 150 8.0 12.9 0.00 0.13 0.10 60 1017.7
20260507011903 29 147 9.7 12.9 0.00 0.13 0.10 60 1017.6
20260507011803 29 148 9.7 12.9 0.00 0.13 0.10 60 1017.6
20260507011703 29 148 9.7 12.9 0.00 0.13 0.10 60 1017.7
20260507011624 29 145 9.7 12.9 0.00 0.13 0.10 60 1017.5
20260507011504 29 144 8.0 12.9 0.00 0.13 0.10 60 1017.8
20260507011404 29 141 9.7 12.9 0.00 0.13 0.10 60 1017.7
20260507011303 29 139 8.0 12.9 0.00 0.13 0.10 60 1017.7
20260507011204 29 139 8.0 12.9 0.00 0.13 0.10 60 1017.7
20260507011103 29 138 8.0 12.9 0.00 0.13 0.10 60 1017.5
20260507010903 29 143 8.0 12.9 0.00 0.13 0.10 60 1017.6
20260507010803 29 141 8.0 12.9 0.00 0.13 0.10 60 1017.8
20260507010725 29 141 9.7 12.9 0.00 0.13 0.10 60 1017.5
20260507010603 29 142 9.7 12.9 0.00 0.13 0.10 60 1017.5
20260507010524 29 143 9.7 12.9 0.00 0.13 0.10 60 1017.5
20260507010424 29 141 9.7 12.9 0.00 0.13 0.10 60 1017.5
20260507010303 29 142 9.7 12.9 0.00 0.13 0.10 60 1017.5
20260507010224 29 142 9.7 12.9 0.00 0.13 0.10 60 1017.4
20260507010124 29 142 9.7 12.9 0.00 0.13 0.10 60 1017.5
20260507010004 29 139 9.7 12.9 0.00 0.13 0.10 60 1017.5
20260507005903 29 139 8.0 12.9 0.00 0.13 0.10 60 1017.5
20260507005804 29 142 8.0 12.9 0.00 0.13 0.10 60 1017.3
20260507005703 29 143 8.0 12.9 0.00 0.13 0.10 60 1017.5
20260507005603 29 142 8.0 11.3 0.00 0.13 0.10 60 1017.5
20260507005503 29 142 8.0 11.3 0.00 0.13 0.10 60 1017.5
20260507005403 29 141 6.4 11.3 0.00 0.13 0.10 60 1017.4
20260507005305 29 142 6.4 11.3 0.00 0.13 0.10 60 1017.4
20260507005224 29 144 6.4 11.3 0.00 0.13 0.10 60 1017.3
20260507005104 29 142 6.4 11.3 0.00 0.13 0.10 60 1017.6
20260507005004 29 143 6.4 11.3 0.00 0.13 0.10 60 1017.4
20260507004903 29 144 6.4 11.3 0.00 0.13 0.10 60 1017.2
20260507004803 29 140 6.4 11.3 0.00 0.13 0.10 60 1017.4
20260507004724 29 140 6.4 11.3 0.00 0.13 0.10 60 1017.2
20260507004603 29 144 8.0 12.9 0.00 0.13 0.10 60 1017.2
20260507004505 29 146 8.0 14.5 0.00 0.13 0.10 60 1017.2
20260507004403 29 153 8.0 14.5 0.00 0.13 0.10 60 1017.2
20260507004303 29 153 9.7 14.5 0.00 0.13 0.10 60 1017.2
20260507004203 29 153 9.7 14.5 0.00 0.13 0.10 60 1017.2
20260507004103 29 156 9.7 14.5 0.00 0.13 0.10 60 1017.1
20260507004004 29 159 9.7 14.5 0.00 0.13 0.10 60 1017.3
20260507003903 29 159 9.7 14.5 0.00 0.13 0.10 60 1017.2
20260507003803 29 161 11.3 14.5 0.00 0.13 0.10 60 1017.4
20260507003703 29 161 11.3 14.5 0.00 0.13 0.10 60 1017.3
20260507003603 29 161 11.3 14.5 0.00 0.13 0.10 60 1017.2
20260507003504 29 163 9.7 14.5 0.00 0.13 0.10 60 1017.2
20260507003403 29 160 9.7 14.5 0.00 0.13 0.10 60 1017.4
20260507003303 29 160 9.7 14.5 0.00 0.13 0.10 60 1017.4
20260507003203 29 164 9.7 14.5 0.00 0.13 0.10 60 1017.2
20260507003103 29 166 8.0 14.5 0.00 0.13 0.10 60 1017.2
20260507003024 29 165 8.0 14.5 0.00 0.13 0.10 60 1017.2
20260507002903 29 166 8.0 14.5 0.00 0.13 0.10 60 1017.3
20260507002824 29 165 8.0 14.5 0.00 0.13 0.10 60 1017.1
20260507002703 29 157 6.4 12.9 0.00 0.13 0.10 60 1017.1
20260507002624 29 157 6.4 12.9 0.00 0.13 0.10 60 1017.1
20260507002504 29 152 6.4 12.9 0.00 0.13 0.10 60 1017.2
20260507002403 29 158 6.4 12.9 0.00 0.13 0.10 60 1017.1
20260507002306 29 160 6.4 12.9 0.00 0.13 0.10 60 1016.7
20260507002225 29 160 6.4 12.9 0.00 0.13 0.10 60 1016.7
20260507002104 29 155 6.4 12.9 0.00 0.13 0.10 60 1017.1
20260507002003 29 155 6.4 12.9 0.00 0.13 0.10 60 1017.0
20260507001904 29 153 6.4 12.9 0.00 0.13 0.10 60 1017.0
20260507001803 29 154 6.4 12.9 0.00 0.13 0.10 60 1016.9
20260507001703 29 154 6.4 12.9 0.00 0.13 0.10 60 1017.0
20260507001603 29 157 6.4 12.9 0.00 0.13 0.10 60 1016.9
20260507001503 29 153 6.4 11.3 0.00 0.13 0.10 60 1016.9
20260507001403 29 152 8.0 11.3 0.00 0.13 0.10 60 1016.9
20260507001303 29 151 8.0 11.3 0.00 0.13 0.10 60 1016.9
20260507001203 29 152 8.0 11.3 0.00 0.13 0.10 60 1017.0
20260507001103 29 152 8.0 11.3 0.00 0.13 0.10 60 1016.7
20260507001003 29 152 6.4 11.3 0.00 0.13 0.10 60 1016.7
20260507000904 29 157 6.4 11.3 0.00 0.13 0.10 60 1016.6
20260507000803 29 158 6.4 11.3 0.00 0.13 0.10 60 1016.6
20260507000703 29 164 6.4 11.3 0.00 0.13 0.10 60 1016.6
20260507000603 29 168 6.4 9.7 0.00 0.13 0.10 60 1016.7
20260507000503 29 175 4.8 9.7 0.00 0.13 0.10 60 1016.5
20260507000424 29 179 4.8 9.7 0.00 0.13 0.10 60 1016.5
20260507000306 29 191 4.8 9.7 0.00 0.13 0.10 60 1016.7
20260507000205 29 198 3.2 9.7 0.00 0.13 0.10 60 1016.5
20260507000124 29 202 3.2 9.7 0.00 0.13 0.10 60 1016.6
20260507000004 29 211 3.2 4.8 0.00 0.13 0.10 60 1016.5
20260506235903 29 215 3.2 4.8 0.00 0.13 0.10 60 1016.7
20260506235804 29 214 3.2 4.8 0.00 0.13 0.10 60 1016.6
20260506235724 29 214 3.2 4.8 0.00 0.13 0.10 60 1016.6
20260506235625 29 215 3.2 4.8 0.00 0.13 0.10 60 1016.6
20260506235503 29 217 3.2 4.8 0.00 0.13 0.10 60 1016.5
20260506235404 29 216 3.2 4.8 0.00 0.13 0.10 60 1016.5
20260506235306 29 214 3.2 4.8 0.00 0.13 0.10 60 1016.3
20260506235203 29 210 3.2 4.8 0.00 0.13 0.10 60 1016.5
20260506235103 29 208 3.2 4.8 0.00 0.13 0.10 60 1016.3
20260506235003 29 204 3.2 4.8 0.00 0.13 0.10 60 1016.4
20260506234924 29 203 3.2 4.8 0.00 0.13 0.10 60 1016.5
20260506234824 29 203 3.2 4.8 0.00 0.13 0.10 60 1016.4
20260506234704 29 194 3.2 4.8 0.00 0.13 0.10 60 1016.3
20260506234603 29 186 3.2 4.8 0.00 0.13 0.10 60 1016.4
20260506234504 29 182 3.2 4.8 0.00 0.13 0.10 60 1016.3
20260506234404 29 177 3.2 4.8 0.00 0.13 0.10 60 1016.3
20260506234303 29 172 3.2 4.8 0.00 0.13 0.10 60 1016.3
20260506234203 29 171 3.2 4.8 0.00 0.13 0.10 60 1016.4
20260506234103 29 169 3.2 4.8 0.00 0.13 0.10 60 1016.2
20260506234003 29 171 3.2 4.8 0.00 0.13 0.10 60 1016.4
20260506233903 29 169 4.8 4.8 0.00 0.13 0.10 60 1016.4
20260506233803 29 166 4.8 4.8 0.00 0.13 0.10 60 1016.3
20260506233724 29 166 4.8 4.8 0.00 0.13 0.10 60 1016.3
20260506233604 29 167 3.2 4.8 0.00 0.13 0.10 60 1016.4
20260506233504 29 169 3.2 4.8 0.00 0.13 0.10 60 1016.1
20260506233403 29 168 3.2 4.8 0.00 0.13 0.10 60 1016.3
20260506233303 29 169 3.2 4.8 0.00 0.13 0.10 60 1016.2
20260506233203 29 169 3.2 4.8 0.00 0.13 0.10 60 1016.3
20260506233103 29 167 3.2 4.8 0.00 0.13 0.10 60 1016.2
20260506233024 29 166 3.2 4.8 0.00 0.13 0.10 60 1016.4
20260506232924 29 165 3.2 4.8 0.00 0.13 0.10 60 1016.4
20260506232803 29 167 3.2 4.8 0.00 0.13 0.10 60 1016.2
20260506232703 29 170 3.2 4.8 0.00 0.13 0.10 60 1016.2
20260506232624 29 169 3.2 4.8 0.00 0.13 0.10 60 1016.3
20260506232503 29 169 3.2 4.8 0.00 0.13 0.10 60 1016.3
20260506232403 29 170 3.2 4.8 0.00 0.13 0.10 60 1016.2
20260506232324 29 170 1.6 4.8 0.00 0.13 0.10 60 1016.2
20260506232203 29 169 3.2 4.8 0.00 0.13 0.10 60 1016.1
20260506232103 29 170 3.2 6.4 0.00 0.13 0.10 60 1016.2
20260506232024 29 170 3.2 6.4 0.00 0.13 0.10 60 1016.2
20260506231903 29 169 3.2 9.7 0.00 0.13 0.10 60 1016.2
20260506231804 29 168 3.2 9.7 0.00 0.13 0.10 60 1016.2
20260506231703 29 161 4.8 9.7 0.00 0.13 0.10 60 1016.1
20260506231603 29 161 4.8 9.7 0.00 0.13 0.10 60 1016.0
20260506231504 29 157 4.8 9.7 0.00 0.13 0.10 60 1016.2
20260506231424 29 156 4.8 9.7 0.00 0.13 0.10 60 1016.2
20260506231303 29 154 6.4 9.7 0.00 0.13 0.10 60 1016.1
20260506231203 29 151 6.4 9.7 0.00 0.13 0.10 60 1016.1
20260506231124 29 149 4.8 9.7 0.00 0.13 0.10 60 1015.9
20260506231003 29 146 4.8 9.7 0.00 0.13 0.10 60 1016.1
20260506230903 29 141 4.8 6.4 0.00 0.13 0.10 60 1016.1
20260506230803 29 138 4.8 6.4 0.00 0.13 0.10 60 1016.1
20260506230703 29 133 4.8 6.4 0.00 0.13 0.10 60 1016.0
20260506230604 29 129 4.8 6.4 0.00 0.13 0.10 60 1016.0
20260506230503 29 123 3.2 6.4 0.00 0.13 0.10 60 1016.0
20260506230403 29 118 3.2 6.4 0.00 0.13 0.10 60 1015.8
20260506230324 29 114 3.2 4.8 0.00 0.13 0.10 60 1016.0
20260506230203 29 112 3.2 4.8 0.00 0.13 0.10 60 1015.9
20260506230103 29 116 3.2 4.8 0.00 0.13 0.10 60 1015.8
20260506230004 29 118 3.2 4.8 0.00 0.13 0.10 60 1015.8
20260506225903 29 121 3.2 4.8 0.00 0.13 0.10 60 1015.9
20260506225804 29 120 3.2 4.8 0.00 0.13 0.10 60 1015.8
20260506225703 29 120 3.2 4.8 0.00 0.13 0.10 60 1015.5
20260506225624 29 121 3.2 4.8 0.00 0.13 0.10 60 1015.9
20260506225503 29 131 1.6 3.2 0.00 0.13 0.10 60 1015.8